Observation data for Snyder SSW on 12/06/2019      Previous  Date       Current Mesonet Observations  Soil Data  Daily Summary Page  Observations in Plain Language
KWT1 060600Z 33016KT 13/03 A3011 RMK A01 T01310028  RH  049%=      5-min Rain = 0
KWT1 060601Z 34015KT 13/03 A3011 RMK A01 T01310028  RH  049%=      5-min Rain = 0
KWT1 060602Z 33012KT 13/03 A3011 RMK A01 T01320028  RH  049%=      5-min Rain = 0
KWT1 060603Z 33011KT 13/03 A3011 RMK A01 T01310028  RH  050%=      5-min Rain = 0
KWT1 060604Z 33012KT 13/03 A3011 RMK A01 T01300028  RH  050%=      5-min Rain = 0
KWT1 060605Z 33012KT 13/03 A3011 RMK A01 T01290028  RH  050%=      5-min Rain = 0
KWT1 060606Z 33010KT 13/03 A3011 RMK A01 T01290028  RH  050%=      5-min Rain = 0
KWT1 060607Z 33011KT 13/03 A3011 RMK A01 T01280028  RH  050%=      5-min Rain = 0
KWT1 060608Z 34015KT 13/03 A3011 RMK A01 T01280028  RH  051%=      5-min Rain = 0
KWT1 060609Z 33012KT 13/03 A3011 RMK A01 T01280028  RH  051%=      5-min Rain = 0
KWT1 060610Z 33012KT 13/03 A3011 RMK A01 T01280028  RH  051%=      5-min Rain = 0
KWT1 060611Z 33011KT 13/03 A3011 RMK A01 T01270028  RH  051%=      5-min Rain = 0
KWT1 060612Z 33012KT 13/03 A3011 RMK A01 T01270028  RH  051%=      5-min Rain = 0
KWT1 060613Z 33009KT 13/03 A3012 RMK A01 T01270028  RH  051%=      5-min Rain = 0
KWT1 060614Z 33011G16KT 13/03 A3012 RMK A01 T01250027  RH  051%=      5-min Rain = 0
KWT1 060615Z 33013KT 12/03 A3012 RMK A01 T01240028  RH  052%=      5-min Rain = 0
KWT1 060616Z 33014KT 13/03 A3012 RMK A01 T01250028  RH  052%=      5-min Rain = 0
KWT1 060617Z 33014KT 13/03 A3012 RMK A01 T01260029  RH  052%=      5-min Rain = 0
KWT1 060618Z 33013KT 13/03 A3012 RMK A01 T01260029  RH  052%=      5-min Rain = 0
KWT1 060619Z 33014KT 13/03 A3012 RMK A01 T01260029  RH  052%=      5-min Rain = 0
KWT1 060620Z 33013KT 13/03 A3012 RMK A01 T01250029  RH  052%=      5-min Rain = 0
KWT1 060621Z 34013KT 12/03 A3012 RMK A01 T01240029  RH  052%=      5-min Rain = 0
KWT1 060622Z 34012KT 12/03 A3012 RMK A01 T01240029  RH  052%=      5-min Rain = 0
KWT1 060623Z 34015KT 12/03 A3012 RMK A01 T01230028  RH  052%=      5-min Rain = 0
KWT1 060624Z 34013KT 12/03 A3012 RMK A01 T01230029  RH  052%=      5-min Rain = 0
KWT1 060625Z 33012KT 12/03 A3012 RMK A01 T01230029  RH  053%=      5-min Rain = 0
KWT1 060626Z 34015KT 12/03 A3012 RMK A01 T01220029  RH  053%=      5-min Rain = 0
KWT1 060627Z 34014KT 12/03 A3012 RMK A01 T01220029  RH  053%=      5-min Rain = 0
KWT1 060628Z 34015KT 12/03 A3012 RMK A01 T01220029  RH  053%=      5-min Rain = 0
KWT1 060629Z 34014G19KT 12/03 A3012 RMK A01 T01210029  RH  053%=      5-min Rain = 0
KWT1 060630Z 34014KT 12/03 A3013 RMK A01 T01210028  RH  053%=      5-min Rain = 0
KWT1 060631Z 34013KT 12/03 A3013 RMK A01 T01210029  RH  053%=      5-min Rain = 0
KWT1 060632Z 34013KT 12/03 A3013 RMK A01 T01210028  RH  053%=      5-min Rain = 0
KWT1 060633Z 33012KT 12/03 A3013 RMK A01 T01210029  RH  053%=      5-min Rain = 0
KWT1 060634Z 34014KT 12/03 A3013 RMK A01 T01190028  RH  054%=      5-min Rain = 0
KWT1 060635Z 34011KT 12/03 A3013 RMK A01 T01200028  RH  054%=      5-min Rain = 0
KWT1 060636Z 34011KT 12/03 A3013 RMK A01 T01190028  RH  054%=      5-min Rain = 0
KWT1 060637Z 34012KT 12/03 A3013 RMK A01 T01180028  RH  054%=      5-min Rain = 0
KWT1 060638Z 33012KT 12/03 A3013 RMK A01 T01180028  RH  054%=      5-min Rain = 0
KWT1 060639Z 34012KT 12/03 A3013 RMK A01 T01180028  RH  054%=      5-min Rain = 0
KWT1 060640Z 34011KT 12/03 A3013 RMK A01 T01180028  RH  054%=      5-min Rain = 0
KWT1 060641Z 34014KT 12/03 A3013 RMK A01 T01170028  RH  054%=      5-min Rain = 0
KWT1 060642Z 34012KT 12/03 A3013 RMK A01 T01170028  RH  054%=      5-min Rain = 0
KWT1 060643Z 33013KT 12/03 A3013 RMK A01 T01170028  RH  054%=      5-min Rain = 0
KWT1 060644Z 34014KT 12/03 A3013 RMK A01 T01170028  RH  054%=      5-min Rain = 0
KWT1 060645Z 34015KT 12/03 A3013 RMK A01 T01170028  RH  054%=      5-min Rain = 0
KWT1 060646Z 34014KT 12/03 A3013 RMK A01 T01170028  RH  054%=      5-min Rain = 0
KWT1 060647Z 34013KT 12/03 A3013 RMK A01 T01170028  RH  054%=      5-min Rain = 0
KWT1 060648Z 34014KT 12/03 A3014 RMK A01 T01170028  RH  054%=      5-min Rain = 0
KWT1 060649Z 34013KT 12/03 A3013 RMK A01 T01170028  RH  054%=      5-min Rain = 0
KWT1 060650Z 34012KT 12/03 A3014 RMK A01 T01160028  RH  054%=      5-min Rain = 0
KWT1 060651Z 34012KT 12/03 A3014 RMK A01 T01160028  RH  055%=      5-min Rain = 0
KWT1 060652Z 34014KT 12/03 A3013 RMK A01 T01160028  RH  055%=      5-min Rain = 0
KWT1 060653Z 34015KT 12/03 A3013 RMK A01 T01160028  RH  055%=      5-min Rain = 0
KWT1 060654Z 35017KT 12/03 A3013 RMK A01 T01160028  RH  055%=      5-min Rain = 0
KWT1 060655Z 34015KT 12/03 A3013 RMK A01 T01170028  RH  055%=      5-min Rain = 0
KWT1 060656Z 34019KT 12/03 A3014 RMK A01 T01160028  RH  054%=      5-min Rain = 0
KWT1 060657Z 34018KT 12/03 A3014 RMK A01 T01170027  RH  054%=      5-min Rain = 0
KWT1 060658Z 34016KT 12/03 A3014 RMK A01 T01170027  RH  054%=      5-min Rain = 0
KWT1 060659Z 34018KT 12/03 A3014 RMK A01 T01170028  RH  054%=      5-min Rain = 0
KWT1 060700Z 34018KT 12/03 A3014 RMK A01 T01170028  RH  054%=      5-min Rain = 0
KWT1 060701Z 34017KT 12/03 A3014 RMK A01 T01160027  RH  054%=      5-min Rain = 0
KWT1 060702Z 34015KT 12/03 A3014 RMK A01 T01170027  RH  054%=      5-min Rain = 0
KWT1 060703Z 34015KT 12/03 A3014 RMK A01 T01170027  RH  054%=      5-min Rain = 0
KWT1 060704Z 35014G19KT 12/03 A3014 RMK A01 T01150026  RH  054%=      5-min Rain = 0
KWT1 060705Z 34015G20KT 12/03 A3014 RMK A01 T01150027  RH  055%=      5-min Rain = 0
KWT1 060706Z 34014KT 12/03 A3014 RMK A01 T01150027  RH  055%=      5-min Rain = 0
KWT1 060707Z 34013KT 12/03 A3014 RMK A01 T01150026  RH  055%=      5-min Rain = 0
KWT1 060708Z 34016KT 11/03 A3014 RMK A01 T01140026  RH  055%=      5-min Rain = 0
KWT1 060709Z 34014G19KT 11/03 A3014 RMK A01 T01140027  RH  055%=      5-min Rain = 0
KWT1 060710Z 34015KT 11/03 A3014 RMK A01 T01140027  RH  055%=      5-min Rain = 0
KWT1 060711Z 34016KT 11/03 A3014 RMK A01 T01140026  RH  055%=      5-min Rain = 0
KWT1 060712Z 34016G22KT 11/03 A3014 RMK A01 T01140026  RH  055%=      5-min Rain = 0
KWT1 060713Z 35018KT 11/03 A3014 RMK A01 T01140026  RH  055%=      5-min Rain = 0
KWT1 060714Z 34015KT 11/03 A3014 RMK A01 T01140026  RH  055%=      5-min Rain = 0
KWT1 060715Z 34016KT 11/03 A3014 RMK A01 T01140026  RH  055%=      5-min Rain = 0
KWT1 060716Z 35015KT 11/03 A3014 RMK A01 T01130026  RH  055%=      5-min Rain = 0
KWT1 060717Z 35013KT 11/03 A3014 RMK A01 T01130026  RH  055%=      5-min Rain = 0
KWT1 060718Z 35016KT 11/03 A3015 RMK A01 T01120026  RH  055%=      5-min Rain = 0
KWT1 060719Z 35013KT 11/03 A3015 RMK A01 T01120026  RH  055%=      5-min Rain = 0
KWT1 060720Z 35017KT 11/03 A3015 RMK A01 T01120026  RH  056%=      5-min Rain = 0
KWT1 060721Z 35013KT 11/03 A3015 RMK A01 T01110026  RH  056%=      5-min Rain = 0
KWT1 060722Z 35015KT 11/03 A3015 RMK A01 T01110026  RH  056%=      5-min Rain = 0
KWT1 060723Z 35015KT 11/03 A3015 RMK A01 T01110026  RH  056%=      5-min Rain = 0
KWT1 060724Z 35017KT 11/03 A3015 RMK A01 T01110026  RH  056%=      5-min Rain = 0
KWT1 060725Z 35017KT 11/03 A3015 RMK A01 T01110026  RH  056%=      5-min Rain = 0
KWT1 060726Z 35014KT 11/03 A3015 RMK A01 T01110025  RH  056%=      5-min Rain = 0
KWT1 060727Z 35014KT 11/03 A3015 RMK A01 T01110025  RH  055%=      5-min Rain = 0
KWT1 060728Z 35013KT 11/03 A3015 RMK A01 T01110025  RH  056%=      5-min Rain = 0
KWT1 060729Z 35014KT 11/03 A3015 RMK A01 T01100025  RH  056%=      5-min Rain = 0
KWT1 060730Z 35014KT 11/03 A3015 RMK A01 T01100026  RH  056%=      5-min Rain = 0
KWT1 060731Z 35013KT 11/03 A3015 RMK A01 T01090025  RH  056%=      5-min Rain = 0
KWT1 060732Z 35016KT 11/03 A3015 RMK A01 T01100025  RH  056%=      5-min Rain = 0
KWT1 060733Z 35014KT 11/03 A3015 RMK A01 T01100025  RH  056%=      5-min Rain = 0
KWT1 060734Z 35014KT 11/03 A3015 RMK A01 T01100025  RH  056%=      5-min Rain = 0
KWT1 060735Z 35014KT 11/03 A3015 RMK A01 T01090025  RH  056%=      5-min Rain = 0
KWT1 060736Z 35013KT 11/03 A3016 RMK A01 T01090025  RH  056%=      5-min Rain = 0
KWT1 060737Z 35012KT 11/03 A3016 RMK A01 T01080025  RH  056%=      5-min Rain = 0
KWT1 060738Z 36015G20KT 11/03 A3016 RMK A01 T01070025  RH  057%=      5-min Rain = 0
KWT1 060739Z 35016KT 11/03 A3016 RMK A01 T01070025  RH  057%=      5-min Rain = 0
KWT1 060740Z 36014KT 11/03 A3016 RMK A01 T01080025  RH  057%=      5-min Rain = 0
KWT1 060741Z 35016KT 11/03 A3016 RMK A01 T01080025  RH  057%=      5-min Rain = 0
KWT1 060742Z 36015KT 11/03 A3016 RMK A01 T01080025  RH  057%=      5-min Rain = 0
KWT1 060743Z 00014KT 11/03 A3016 RMK A01 T01080025  RH  056%=      5-min Rain = 0
KWT1 060744Z 35014KT 11/03 A3016 RMK A01 T01080025  RH  056%=      5-min Rain = 0
KWT1 060745Z 35017KT 11/03 A3016 RMK A01 T01070025  RH  057%=      5-min Rain = 0
KWT1 060746Z 36014G19KT 11/03 A3016 RMK A01 T01080025  RH  056%=      5-min Rain = 0
KWT1 060747Z 36014KT 11/03 A3016 RMK A01 T01080025  RH  056%=      5-min Rain = 0
KWT1 060748Z 36015KT 11/02 A3016 RMK A01 T01070024  RH  057%=      5-min Rain = 0
KWT1 060749Z 35014G19KT 11/03 A3016 RMK A01 T01070025  RH  057%=      5-min Rain = 0
KWT1 060750Z 35015KT 11/02 A3016 RMK A01 T01070024  RH  057%=      5-min Rain = 0
KWT1 060751Z 36012KT 11/02 A3016 RMK A01 T01070024  RH  057%=      5-min Rain = 0
KWT1 060752Z 34012KT 11/02 A3016 RMK A01 T01060024  RH  057%=      5-min Rain = 0
KWT1 060753Z 35013G18KT 11/02 A3016 RMK A01 T01050024  RH  057%=      5-min Rain = 0
KWT1 060754Z 35013KT 11/02 A3016 RMK A01 T01050024  RH  057%=      5-min Rain = 0
KWT1 060755Z 36013KT 10/02 A3016 RMK A01 T01040024  RH  057%=      5-min Rain = 0
KWT1 060756Z 35013KT 11/02 A3016 RMK A01 T01050024  RH  057%=      5-min Rain = 0
KWT1 060757Z 35016KT 11/02 A3016 RMK A01 T01050024  RH  057%=      5-min Rain = 0
KWT1 060758Z 35015KT 11/02 A3017 RMK A01 T01060024  RH  057%=      5-min Rain = 0
KWT1 060759Z 35012KT 11/02 A3017 RMK A01 T01060024  RH  057%=      5-min Rain = 0
KWT1 060800Z 35014KT 11/02 A3017 RMK A01 T01050024  RH  057%=      5-min Rain = 0
KWT1 060801Z 35014KT 10/02 A3017 RMK A01 T01040024  RH  057%=      5-min Rain = 0
KWT1 060802Z 36013KT 10/02 A3017 RMK A01 T01040023  RH  057%=      5-min Rain = 0
KWT1 060803Z 36014KT 10/02 A3017 RMK A01 T01040024  RH  057%=      5-min Rain = 0
KWT1 060804Z 36013KT 10/02 A3017 RMK A01 T01040024  RH  058%=      5-min Rain = 0
KWT1 060805Z 35014KT 10/02 A3017 RMK A01 T01040024  RH  058%=      5-min Rain = 0
KWT1 060806Z 35014KT 10/02 A3017 RMK A01 T01040024  RH  058%=      5-min Rain = 0
KWT1 060807Z 35012KT 10/02 A3017 RMK A01 T01040024  RH  058%=      5-min Rain = 0
KWT1 060808Z 36012G18KT 10/02 A3017 RMK A01 T01040024  RH  058%=      5-min Rain = 0
KWT1 060809Z 35013KT 10/02 A3017 RMK A01 T01030024  RH  058%=      5-min Rain = 0
KWT1 060810Z 36011KT 10/02 A3017 RMK A01 T01020023  RH  058%=      5-min Rain = 0
KWT1 060811Z 35014KT 10/02 A3017 RMK A01 T01010023  RH  058%=      5-min Rain = 0
KWT1 060812Z 00014KT 10/02 A3017 RMK A01 T01010023  RH  058%=      5-min Rain = 0
KWT1 060813Z 36014KT 10/02 A3017 RMK A01 T01020023  RH  058%=      5-min Rain = 0
KWT1 060814Z 35016KT 10/02 A3017 RMK A01 T01020023  RH  058%=      5-min Rain = 0
KWT1 060815Z 36014KT 10/02 A3017 RMK A01 T01030024  RH  058%=      5-min Rain = 0
KWT1 060816Z 35015KT 10/02 A3017 RMK A01 T01020023  RH  058%=      5-min Rain = 0
KWT1 060817Z 36016KT 10/02 A3017 RMK A01 T01020023  RH  058%=      5-min Rain = 0
KWT1 060818Z 35013KT 10/02 A3017 RMK A01 T01020023  RH  058%=      5-min Rain = 0
KWT1 060819Z 35013KT 10/02 A3017 RMK A01 T01020023  RH  058%=      5-min Rain = 0
KWT1 060820Z 35016KT 10/02 A3017 RMK A01 T01010023  RH  058%=      5-min Rain = 0
KWT1 060821Z 35013KT 10/02 A3017 RMK A01 T01010023  RH  058%=      5-min Rain = 0
KWT1 060822Z 35014KT 10/02 A3017 RMK A01 T01010023  RH  058%=      5-min Rain = 0
KWT1 060823Z 35012KT 10/02 A3017 RMK A01 T01000023  RH  059%=      5-min Rain = 0
KWT1 060824Z 35015KT 10/02 A3017 RMK A01 T01000023  RH  059%=      5-min Rain = 0
KWT1 060825Z 35013KT 10/02 A3017 RMK A01 T01000023  RH  059%=      5-min Rain = 0
KWT1 060826Z 35013G18KT 10/02 A3017 RMK A01 T00990023  RH  059%=      5-min Rain = 0
KWT1 060827Z 35014KT 10/02 A3018 RMK A01 T00980023  RH  059%=      5-min Rain = 0
KWT1 060828Z 35015KT 10/02 A3018 RMK A01 T00990023  RH  059%=      5-min Rain = 0
KWT1 060829Z 34016KT 10/02 A3018 RMK A01 T01000024  RH  059%=      5-min Rain = 0
KWT1 060830Z 35014KT 10/02 A3018 RMK A01 T01000023  RH  059%=      5-min Rain = 0
KWT1 060831Z 35015KT 10/02 A3018 RMK A01 T01000023  RH  059%=      5-min Rain = 0
KWT1 060832Z 34014G19KT 10/02 A3018 RMK A01 T01000023  RH  059%=      5-min Rain = 0
KWT1 060833Z 34014KT 10/02 A3018 RMK A01 T01000023  RH  059%=      5-min Rain = 0
KWT1 060834Z 34014KT 10/02 A3018 RMK A01 T00990023  RH  059%=      5-min Rain = 0
KWT1 060835Z 35012KT 10/02 A3018 RMK A01 T00990023  RH  059%=      5-min Rain = 0
KWT1 060836Z 35014KT 10/02 A3018 RMK A01 T00980023  RH  059%=      5-min Rain = 0
KWT1 060837Z 34012KT 10/02 A3018 RMK A01 T00980022  RH  059%=      5-min Rain = 0
KWT1 060838Z 34012KT 10/02 A3018 RMK A01 T00980022  RH  060%=      5-min Rain = 0
KWT1 060839Z 34012KT 10/02 A3018 RMK A01 T00970022  RH  060%=      5-min Rain = 0
KWT1 060840Z 35011KT 10/02 A3018 RMK A01 T00970023  RH  060%=      5-min Rain = 0
KWT1 060841Z 35012G17KT 10/02 A3019 RMK A01 T00970022  RH  060%=      5-min Rain = 0
KWT1 060842Z 35012KT 10/02 A3019 RMK A01 T00970022  RH  060%=      5-min Rain = 0
KWT1 060843Z 35014G22KT 10/02 A3019 RMK A01 T00970023  RH  060%=      5-min Rain = 0
KWT1 060844Z 35014KT 10/02 A3019 RMK A01 T00980023  RH  059%=      5-min Rain = 0
KWT1 060845Z 35014KT 10/02 A3019 RMK A01 T00990023  RH  059%=      5-min Rain = 0
KWT1 060846Z 35013KT 10/02 A3019 RMK A01 T00990023  RH  059%=      5-min Rain = 0
KWT1 060847Z 34013KT 10/02 A3019 RMK A01 T00990023  RH  059%=      5-min Rain = 0
KWT1 060848Z 35011KT 10/02 A3019 RMK A01 T00980023  RH  059%=      5-min Rain = 0
KWT1 060849Z 35011KT 10/02 A3019 RMK A01 T00980022  RH  059%=      5-min Rain = 0
KWT1 060850Z 35012KT 10/02 A3019 RMK A01 T00970022  RH  060%=      5-min Rain = 0
KWT1 060851Z 35010KT 10/02 A3019 RMK A01 T00970022  RH  060%=      5-min Rain = 0
KWT1 060852Z 35010KT 10/02 A3019 RMK A01 T00970022  RH  060%=      5-min Rain = 0
KWT1 060853Z 35010KT 10/02 A3019 RMK A01 T00960022  RH  060%=      5-min Rain = 0
KWT1 060854Z 36011KT 10/02 A3019 RMK A01 T00950022  RH  060%=      5-min Rain = 0
KWT1 060855Z 35011G16KT 10/02 A302 RMK A01 T00960023  RH  060%=      5-min Rain = 0
KWT1 060856Z 35009KT 10/02 A302 RMK A01 T00970023  RH  060%=      5-min Rain = 0
KWT1 060857Z 35011KT 10/02 A302 RMK A01 T00960023  RH  060%=      5-min Rain = 0
KWT1 060858Z 35011KT 10/02 A302 RMK A01 T00950022  RH  060%=      5-min Rain = 0
KWT1 060859Z 35010KT 10/02 A302 RMK A01 T00960023  RH  060%=      5-min Rain = 0
KWT1 060900Z 35010KT 10/02 A302 RMK A01 T00960022  RH  060%=      5-min Rain = 0
KWT1 060901Z 35011KT 10/02 A302 RMK A01 T00960023  RH  060%=      5-min Rain = 0
KWT1 060902Z 34010KT 10/02 A302 RMK A01 T00950022  RH  060%=      5-min Rain = 0
KWT1 060903Z 34009KT 10/02 A302 RMK A01 T00950023  RH  060%=      5-min Rain = 0
KWT1 060904Z 34011KT 10/02 A302 RMK A01 T00950023  RH  061%=      5-min Rain = 0
KWT1 060905Z 34010KT 10/02 A302 RMK A01 T00950023  RH  061%=      5-min Rain = 0
KWT1 060906Z 34009KT 09/02 A302 RMK A01 T00940023  RH  061%=      5-min Rain = 0
KWT1 060907Z 34011KT 09/02 A302 RMK A01 T00940023  RH  061%=      5-min Rain = 0
KWT1 060908Z 34011KT 09/02 A302 RMK A01 T00940023  RH  061%=      5-min Rain = 0
KWT1 060909Z 34011KT 09/02 A302 RMK A01 T00930023  RH  061%=      5-min Rain = 0
KWT1 060910Z 34011KT 09/02 A302 RMK A01 T00930023  RH  061%=      5-min Rain = 0
KWT1 060911Z 34012KT 09/02 A302 RMK A01 T00930023  RH  062%=      5-min Rain = 0
KWT1 060912Z 34010KT 09/02 A302 RMK A01 T00930023  RH  062%=      5-min Rain = 0
KWT1 060913Z 35010KT 09/02 A302 RMK A01 T00930023  RH  062%=      5-min Rain = 0
KWT1 060914Z 35012KT 09/02 A302 RMK A01 T00920022  RH  062%=      5-min Rain = 0
KWT1 060915Z 34011KT 09/02 A302 RMK A01 T00920023  RH  062%=      5-min Rain = 0
KWT1 060916Z 35009KT 09/02 A302 RMK A01 T00920023  RH  062%=      5-min Rain = 0
KWT1 060917Z 34012KT 09/02 A302 RMK A01 T00910023  RH  062%=      5-min Rain = 0
KWT1 060918Z 34012KT 09/02 A302 RMK A01 T00910023  RH  062%=      5-min Rain = 0
KWT1 060919Z 34009KT 09/02 A302 RMK A01 T00910023  RH  062%=      5-min Rain = 0
KWT1 060920Z 34012KT 09/02 A302 RMK A01 T00900023  RH  063%=      5-min Rain = 0
KWT1 060921Z 34012KT 09/02 A302 RMK A01 T00900023  RH  063%=      5-min Rain = 0
KWT1 060922Z 34012KT 09/02 A302 RMK A01 T00900023  RH  063%=      5-min Rain = 0
KWT1 060923Z 34011KT 09/02 A302 RMK A01 T00900023  RH  063%=      5-min Rain = 0
KWT1 060924Z 34011KT 09/02 A302 RMK A01 T00900023  RH  063%=      5-min Rain = 0
KWT1 060925Z 34012KT 09/02 A302 RMK A01 T00900023  RH  063%=      5-min Rain = 0
KWT1 060926Z 34011KT 09/02 A302 RMK A01 T00900023  RH  063%=      5-min Rain = 0
KWT1 060927Z 34012KT 09/02 A302 RMK A01 T00900023  RH  063%=      5-min Rain = 0
KWT1 060928Z 34013KT 09/02 A302 RMK A01 T00900023  RH  063%=      5-min Rain = 0
KWT1 060929Z 34012KT 09/02 A302 RMK A01 T00900023  RH  063%=      5-min Rain = 0
KWT1 060930Z 34011KT 09/02 A302 RMK A01 T00890023  RH  063%=      5-min Rain = 0
KWT1 060931Z 34011KT 09/02 A302 RMK A01 T00890023  RH  063%=      5-min Rain = 0
KWT1 060932Z 34011KT 09/02 A302 RMK A01 T00890023  RH  063%=      5-min Rain = 0
KWT1 060933Z 34010KT 09/02 A302 RMK A01 T00880022  RH  063%=      5-min Rain = 0
KWT1 060934Z 34011G16KT 09/02 A302 RMK A01 T00880022  RH  064%=      5-min Rain = 0
KWT1 060935Z 34012KT 09/02 A302 RMK A01 T00870023  RH  064%=      5-min Rain = 0
KWT1 060936Z 34011KT 09/02 A302 RMK A01 T00880023  RH  064%=      5-min Rain = 0
KWT1 060937Z 34011KT 09/02 A302 RMK A01 T00870023  RH  064%=      5-min Rain = 0
KWT1 060938Z 34011KT 09/02 A302 RMK A01 T00870023  RH  064%=      5-min Rain = 0
KWT1 060939Z 34012KT 09/02 A302 RMK A01 T00860023  RH  064%=      5-min Rain = 0
KWT1 060940Z 34012KT 09/02 A302 RMK A01 T00860023  RH  064%=      5-min Rain = 0
KWT1 060941Z 34011KT 09/02 A302 RMK A01 T00860023  RH  064%=      5-min Rain = 0
KWT1 060942Z 34012KT 09/02 A302 RMK A01 T00860023  RH  065%=      5-min Rain = 0
KWT1 060943Z 34011KT 09/02 A302 RMK A01 T00860023  RH  065%=      5-min Rain = 0
KWT1 060944Z 34011KT 09/02 A302 RMK A01 T00850023  RH  065%=      5-min Rain = 0
KWT1 060945Z 34009KT 09/02 A302 RMK A01 T00850023  RH  065%=      5-min Rain = 0
KWT1 060946Z 34011KT 08/02 A302 RMK A01 T00840023  RH  065%=      5-min Rain = 0
KWT1 060947Z 34011KT 09/02 A302 RMK A01 T00850023  RH  065%=      5-min Rain = 0
KWT1 060948Z 35012KT 09/02 A302 RMK A01 T00850024  RH  065%=      5-min Rain = 0
KWT1 060949Z 35011KT 09/02 A302 RMK A01 T00850024  RH  065%=      5-min Rain = 0
KWT1 060950Z 35010KT 09/02 A302 RMK A01 T00850023  RH  065%=      5-min Rain = 0
KWT1 060951Z 35009KT 09/02 A302 RMK A01 T00850023  RH  065%=      5-min Rain = 0
KWT1 060952Z 35010KT 08/02 A302 RMK A01 T00840023  RH  066%=      5-min Rain = 0
KWT1 060953Z 35012KT 08/02 A302 RMK A01 T00840024  RH  066%=      5-min Rain = 0
KWT1 060954Z 35011KT 08/02 A302 RMK A01 T00840024  RH  066%=      5-min Rain = 0
KWT1 060955Z 35009KT 08/02 A302 RMK A01 T00840024  RH  066%=      5-min Rain = 0
KWT1 060956Z 35010KT 08/02 A302 RMK A01 T00840023  RH  066%=      5-min Rain = 0
KWT1 060957Z 35011KT 08/02 A302 RMK A01 T00840024  RH  066%=      5-min Rain = 0
KWT1 060958Z 35010KT 08/02 A302 RMK A01 T00840024  RH  066%=      5-min Rain = 0
KWT1 060959Z 35010KT 08/02 A302 RMK A01 T00840024  RH  066%=      5-min Rain = 0
KWT1 061000Z 35012KT 08/02 A302 RMK A01 T00830024  RH  066%=      5-min Rain = 0
KWT1 061001Z 35010KT 08/02 A3021 RMK A01 T00830024  RH  066%=      5-min Rain = 0
KWT1 061002Z 36010KT 08/02 A3021 RMK A01 T00830024  RH  066%=      5-min Rain = 0
KWT1 061003Z 35009KT 08/02 A3021 RMK A01 T00830024  RH  067%=      5-min Rain = 0
KWT1 061004Z 35010KT 08/02 A3021 RMK A01 T00820024  RH  067%=      5-min Rain = 0
KWT1 061005Z 35011KT 08/02 A302 RMK A01 T00820024  RH  067%=      5-min Rain = 0
KWT1 061006Z 35010KT 08/02 A302 RMK A01 T00820024  RH  067%=      5-min Rain = 0
KWT1 061007Z 35010KT 08/02 A302 RMK A01 T00820024  RH  067%=      5-min Rain = 0
KWT1 061008Z 35010KT 08/02 A302 RMK A01 T00820024  RH  067%=      5-min Rain = 0
KWT1 061009Z 35010KT 08/02 A302 RMK A01 T00800024  RH  067%=      5-min Rain = 0
KWT1 061010Z 35010KT 08/02 A302 RMK A01 T00800024  RH  068%=      5-min Rain = 0
KWT1 061011Z 35009KT 08/02 A3021 RMK A01 T00790024  RH  068%=      5-min Rain = 0
KWT1 061012Z 35010KT 08/02 A302 RMK A01 T00790024  RH  068%=      5-min Rain = 0
KWT1 061013Z 35010KT 08/02 A302 RMK A01 T00790024  RH  068%=      5-min Rain = 0
KWT1 061014Z 35009KT 08/03 A302 RMK A01 T00800025  RH  068%=      5-min Rain = 0
KWT1 061015Z 35010KT 08/02 A302 RMK A01 T00790024  RH  068%=      5-min Rain = 0
KWT1 061016Z 35010KT 08/03 A302 RMK A01 T00800025  RH  068%=      5-min Rain = 0
KWT1 061017Z 35009KT 08/03 A302 RMK A01 T00800025  RH  068%=      5-min Rain = 0
KWT1 061018Z 35010KT 08/02 A302 RMK A01 T00790024  RH  069%=      5-min Rain = 0
KWT1 061019Z 35010KT 08/02 A302 RMK A01 T00780024  RH  069%=      5-min Rain = 0
KWT1 061020Z 35010KT 08/03 A302 RMK A01 T00780025  RH  069%=      5-min Rain = 0
KWT1 061021Z 35009KT 08/03 A302 RMK A01 T00790025  RH  069%=      5-min Rain = 0
KWT1 061022Z 35009KT 08/03 A302 RMK A01 T00780025  RH  069%=      5-min Rain = 0
KWT1 061023Z 35009KT 08/03 A302 RMK A01 T00780025  RH  069%=      5-min Rain = 0
KWT1 061024Z 35009KT 08/03 A302 RMK A01 T00780025  RH  069%=      5-min Rain = 0
KWT1 061025Z 35009KT 08/03 A3021 RMK A01 T00780025  RH  069%=      5-min Rain = 0
KWT1 061026Z 35009KT 08/02 A3021 RMK A01 T00770024  RH  069%=      5-min Rain = 0
KWT1 061027Z 35008KT 08/02 A3021 RMK A01 T00770024  RH  069%=      5-min Rain = 0
KWT1 061028Z 35009KT 08/02 A3021 RMK A01 T00760024  RH  069%=      5-min Rain = 0
KWT1 061029Z 35010KT 08/02 A3021 RMK A01 T00760024  RH  070%=      5-min Rain = 0
KWT1 061030Z 36008KT 08/03 A3021 RMK A01 T00770025  RH  069%=      5-min Rain = 0
KWT1 061031Z 35009KT 08/02 A3021 RMK A01 T00770024  RH  069%=      5-min Rain = 0
KWT1 061032Z 35008KT 08/02 A3021 RMK A01 T00760024  RH  070%=      5-min Rain = 0
KWT1 061033Z 35009KT 08/02 A3021 RMK A01 T00750024  RH  070%=      5-min Rain = 0
KWT1 061034Z 35010KT 08/02 A3021 RMK A01 T00760024  RH  070%=      5-min Rain = 0
KWT1 061035Z 35010KT 08/02 A3021 RMK A01 T00750024  RH  070%=      5-min Rain = 0
KWT1 061036Z 34010KT 08/02 A3021 RMK A01 T00750024  RH  070%=      5-min Rain = 0
KWT1 061037Z 35010KT 08/02 A3021 RMK A01 T00750024  RH  070%=      5-min Rain = 0
KWT1 061038Z 34010KT 08/02 A3021 RMK A01 T00750024  RH  070%=      5-min Rain = 0
KWT1 061039Z 34009KT 08/02 A3021 RMK A01 T00750024  RH  070%=      5-min Rain = 0
KWT1 061040Z 34010KT 08/02 A3021 RMK A01 T00750024  RH  070%=      5-min Rain = 0
KWT1 061041Z 34010KT 08/02 A3021 RMK A01 T00750024  RH  070%=      5-min Rain = 0
KWT1 061042Z 34011KT 08/03 A3021 RMK A01 T00750025  RH  070%=      5-min Rain = 0
KWT1 061043Z 34011KT 08/03 A3021 RMK A01 T00760025  RH  070%=      5-min Rain = 0
KWT1 061044Z 34009KT 08/02 A3021 RMK A01 T00750024  RH  070%=      5-min Rain = 0
KWT1 061045Z 34011KT 08/03 A3021 RMK A01 T00760025  RH  070%=      5-min Rain = 0
KWT1 061046Z 34010KT 08/03 A3021 RMK A01 T00750025  RH  070%=      5-min Rain = 0
KWT1 061047Z 34010KT 07/02 A3021 RMK A01 T00740024  RH  071%=      5-min Rain = 0
KWT1 061048Z 34011KT 07/03 A3021 RMK A01 T00740025  RH  071%=      5-min Rain = 0
KWT1 061049Z 34010KT 07/03 A3021 RMK A01 T00740025  RH  071%=      5-min Rain = 0
KWT1 061050Z 34010KT 07/03 A3021 RMK A01 T00740025  RH  071%=      5-min Rain = 0
KWT1 061051Z 34009KT 07/03 A3022 RMK A01 T00740025  RH  071%=      5-min Rain = 0
KWT1 061052Z 34011KT 07/03 A3022 RMK A01 T00740025  RH  071%=      5-min Rain = 0
KWT1 061053Z 34011KT 07/03 A3022 RMK A01 T00740025  RH  071%=      5-min Rain = 0
KWT1 061054Z 34011KT 08/03 A3022 RMK A01 T00750025  RH  071%=      5-min Rain = 0
KWT1 061055Z 34010KT 08/03 A3022 RMK A01 T00750025  RH  071%=      5-min Rain = 0
KWT1 061056Z 34010KT 08/03 A3022 RMK A01 T00750025  RH  071%=      5-min Rain = 0
KWT1 061057Z 34009KT 08/03 A3022 RMK A01 T00750025  RH  071%=      5-min Rain = 0
KWT1 061058Z 34009KT 08/03 A3022 RMK A01 T00750025  RH  071%=      5-min Rain = 0
KWT1 061059Z 35010KT 07/03 A3022 RMK A01 T00740025  RH  071%=      5-min Rain = 0
KWT1 061100Z 35009KT 07/03 A3022 RMK A01 T00740025  RH  071%=      5-min Rain = 0
KWT1 061101Z 35010KT 08/03 A3022 RMK A01 T00750025  RH  071%=      5-min Rain = 0
KWT1 061102Z 34010KT 07/03 A3022 RMK A01 T00740025  RH  071%=      5-min Rain = 0
KWT1 061103Z 35010KT 07/03 A3022 RMK A01 T00740025  RH  071%=      5-min Rain = 0
KWT1 061104Z 35010KT 07/03 A3022 RMK A01 T00740025  RH  071%=      5-min Rain = 0
KWT1 061105Z 35010KT 07/03 A3022 RMK A01 T00740025  RH  071%=      5-min Rain = 0
KWT1 061106Z 35009KT 07/03 A3022 RMK A01 T00740025  RH  071%=      5-min Rain = 0
KWT1 061107Z 35011KT 07/03 A3022 RMK A01 T00740025  RH  071%=      5-min Rain = 0
KWT1 061108Z 35011KT 08/03 A3022 RMK A01 T00750026  RH  071%=      5-min Rain = 0
KWT1 061109Z 35010KT 08/03 A3022 RMK A01 T00750025  RH  071%=      5-min Rain = 0
KWT1 061110Z 35010KT 08/03 A3022 RMK A01 T00750025  RH  071%=      5-min Rain = 0
KWT1 061111Z 35010KT 08/03 A3022 RMK A01 T00750025  RH  071%=      5-min Rain = 0
KWT1 061112Z 35009KT 08/03 A3022 RMK A01 T00750026  RH  071%=      5-min Rain = 0
KWT1 061113Z 35010KT 08/03 A3022 RMK A01 T00750026  RH  071%=      5-min Rain = 0
KWT1 061114Z 35009KT 08/03 A3022 RMK A01 T00750025  RH  071%=      5-min Rain = 0
KWT1 061115Z 35011KT 07/03 A3022 RMK A01 T00740025  RH  071%=      5-min Rain = 0
KWT1 061116Z 35010KT 07/03 A3022 RMK A01 T00740025  RH  071%=      5-min Rain = 0
KWT1 061117Z 35011KT 07/03 A3022 RMK A01 T00740025  RH  071%=      5-min Rain = 0
KWT1 061118Z 35010KT 07/03 A3022 RMK A01 T00740025  RH  071%=      5-min Rain = 0
KWT1 061119Z 35010KT 07/03 A3022 RMK A01 T00740025  RH  071%=      5-min Rain = 0
KWT1 061120Z 35012KT 08/03 A3022 RMK A01 T00750025  RH  071%=      5-min Rain = 0
KWT1 061121Z 35010KT 08/03 A3022 RMK A01 T00750026  RH  071%=      5-min Rain = 0
KWT1 061122Z 35010KT 08/03 A3022 RMK A01 T00750025  RH  071%=      5-min Rain = 0
KWT1 061123Z 35009KT 07/03 A3022 RMK A01 T00730025  RH  071%=      5-min Rain = 0
KWT1 061124Z 35010KT 07/03 A3022 RMK A01 T00730025  RH  072%=      5-min Rain = 0
KWT1 061125Z 35010KT 07/03 A3022 RMK A01 T00730025  RH  072%=      5-min Rain = 0
KWT1 061126Z 35011KT 07/03 A3022 RMK A01 T00720025  RH  072%=      5-min Rain = 0
KWT1 061127Z 35010KT 07/03 A3022 RMK A01 T00730025  RH  072%=      5-min Rain = 0
KWT1 061128Z 34011KT 07/03 A3022 RMK A01 T00730025  RH  071%=      5-min Rain = 0
KWT1 061129Z 34010KT 07/03 A3022 RMK A01 T00730025  RH  071%=      5-min Rain = 0
KWT1 061130Z 34011KT 07/03 A3022 RMK A01 T00730025  RH  071%=      5-min Rain = 0
KWT1 061131Z 34011KT 07/02 A3022 RMK A01 T00720024  RH  071%=      5-min Rain = 0
KWT1 061132Z 34011KT 07/03 A3022 RMK A01 T00730025  RH  071%=      5-min Rain = 0
KWT1 061133Z 35011KT 07/02 A3022 RMK A01 T00730024  RH  071%=      5-min Rain = 0
KWT1 061134Z 34011KT 07/02 A3022 RMK A01 T00730024  RH  071%=      5-min Rain = 0
KWT1 061135Z 35012KT 07/02 A3022 RMK A01 T00740024  RH  071%=      5-min Rain = 0
KWT1 061136Z 35010KT 07/02 A3022 RMK A01 T00740024  RH  070%=      5-min Rain = 0
KWT1 061137Z 35009KT 07/02 A3022 RMK A01 T00740023  RH  070%=      5-min Rain = 0
KWT1 061138Z 35010KT 07/02 A3022 RMK A01 T00740023  RH  070%=      5-min Rain = 0
KWT1 061139Z 34009KT 07/02 A3023 RMK A01 T00740023  RH  070%=      5-min Rain = 0
KWT1 061140Z 34008KT 07/02 A3023 RMK A01 T00740023  RH  070%=      5-min Rain = 0
KWT1 061141Z 35008KT 07/02 A3023 RMK A01 T00730023  RH  070%=      5-min Rain = 0
KWT1 061142Z 35008KT 07/02 A3023 RMK A01 T00730023  RH  070%=      5-min Rain = 0
KWT1 061143Z 34008KT 07/02 A3023 RMK A01 T00730023  RH  071%=      5-min Rain = 0
KWT1 061144Z 34009KT 07/02 A3023 RMK A01 T00720023  RH  071%=      5-min Rain = 0
KWT1 061145Z 35007KT 07/02 A3023 RMK A01 T00730023  RH  070%=      5-min Rain = 0
KWT1 061146Z 34007KT 07/02 A3023 RMK A01 T00730023  RH  071%=      5-min Rain = 0
KWT1 061147Z 34006KT 07/02 A3023 RMK A01 T00720023  RH  071%=      5-min Rain = 0
KWT1 061148Z 35007KT 07/02 A3023 RMK A01 T00720023  RH  071%=      5-min Rain = 0
KWT1 061149Z 35009KT 07/02 A3023 RMK A01 T00720023  RH  071%=      5-min Rain = 0
KWT1 061150Z 35008KT 07/02 A3023 RMK A01 T00720022  RH  071%=      5-min Rain = 0
KWT1 061151Z 34009KT 07/02 A3023 RMK A01 T00730023  RH  070%=      5-min Rain = 0
KWT1 061152Z 34008KT 07/02 A3023 RMK A01 T00730022  RH  070%=      5-min Rain = 0
KWT1 061153Z 34008KT 07/02 A3023 RMK A01 T00740022  RH  070%=      5-min Rain = 0
KWT1 061154Z 33007KT 07/02 A3023 RMK A01 T00740023  RH  070%=      5-min Rain = 0
KWT1 061155Z 33007KT 07/02 A3023 RMK A01 T00740022  RH  070%=      5-min Rain = 0
KWT1 061156Z 33006KT 07/02 A3024 RMK A01 T00730022  RH  070%=      5-min Rain = 0
KWT1 061157Z 33007KT 07/02 A3024 RMK A01 T00730022  RH  070%=      5-min Rain = 0
KWT1 061158Z 33006KT 07/02 A3024 RMK A01 T00720022  RH  070%=      5-min Rain = 0
KWT1 061159Z 33006KT 07/02 A3024 RMK A01 T00720022  RH  071%=      5-min Rain = 0
KWT1 061200Z 34006KT 07/02 A3024 RMK A01 T00720022  RH  071%=      5-min Rain = 0
KWT1 061201Z 34007KT 07/02 A3024 RMK A01 T00710022  RH  071%=      5-min Rain = 0
KWT1 061202Z 33007KT 07/02 A3024 RMK A01 T00710022  RH  071%=      5-min Rain = 0
KWT1 061203Z 33007KT 07/02 A3024 RMK A01 T00700022  RH  071%=      5-min Rain = 0
KWT1 061204Z 33007KT 07/02 A3024 RMK A01 T00710022  RH  071%=      5-min Rain = 0
KWT1 061205Z 33007KT 07/02 A3025 RMK A01 T00710022  RH  071%=      5-min Rain = 0
KWT1 061206Z 33008KT 07/02 A3025 RMK A01 T00710022  RH  071%=      5-min Rain = 0
KWT1 061207Z 33008KT 07/02 A3025 RMK A01 T00710022  RH  071%=      5-min Rain = 0
KWT1 061208Z 33009KT 07/02 A3025 RMK A01 T00720022  RH  071%=      5-min Rain = 0
KWT1 061209Z 33007KT 07/02 A3025 RMK A01 T00720022  RH  070%=      5-min Rain = 0
KWT1 061210Z 33008KT 07/02 A3025 RMK A01 T00720021  RH  070%=      5-min Rain = 0
KWT1 061211Z 33008KT 07/02 A3025 RMK A01 T00730022  RH  070%=      5-min Rain = 0
KWT1 061212Z 33007KT 07/02 A3025 RMK A01 T00730021  RH  070%=      5-min Rain = 0
KWT1 061213Z 33008KT 07/02 A3025 RMK A01 T00730021  RH  070%=      5-min Rain = 0
KWT1 061214Z 33008KT 07/02 A3025 RMK A01 T00720021  RH  070%=      5-min Rain = 0
KWT1 061215Z 33008KT 07/02 A3025 RMK A01 T00710021  RH  070%=      5-min Rain = 0
KWT1 061216Z 33007KT 07/02 A3025 RMK A01 T00710021  RH  071%=      5-min Rain = 0
KWT1 061217Z 32007KT 07/02 A3025 RMK A01 T00710021  RH  071%=      5-min Rain = 0
KWT1 061218Z 32007KT 07/02 A3025 RMK A01 T00700021  RH  071%=      5-min Rain = 0
KWT1 061219Z 33007KT 07/02 A3026 RMK A01 T00690021  RH  071%=      5-min Rain = 0
KWT1 061220Z 33007KT 07/02 A3026 RMK A01 T00690021  RH  072%=      5-min Rain = 0
KWT1 061221Z 33006KT 07/02 A3026 RMK A01 T00690021  RH  071%=      5-min Rain = 0
KWT1 061222Z 34005KT 07/02 A3026 RMK A01 T00680020  RH  071%=      5-min Rain = 0
KWT1 061223Z 33005KT 07/02 A3026 RMK A01 T00670020  RH  072%=      5-min Rain = 0
KWT1 061224Z 34006KT 07/02 A3026 RMK A01 T00670020  RH  072%=      5-min Rain = 0
KWT1 061225Z 34005KT 07/02 A3026 RMK A01 T00660020  RH  072%=      5-min Rain = 0
KWT1 061226Z 34004KT 07/02 A3026 RMK A01 T00670020  RH  072%=      5-min Rain = 0
KWT1 061227Z 33005KT 07/02 A3026 RMK A01 T00660020  RH  072%=      5-min Rain = 0
KWT1 061228Z 33006KT 07/02 A3026 RMK A01 T00660020  RH  072%=      5-min Rain = 0
KWT1 061229Z 33005KT 07/02 A3026 RMK A01 T00670020  RH  072%=      5-min Rain = 0
KWT1 061230Z 33006KT 07/02 A3027 RMK A01 T00670020  RH  072%=      5-min Rain = 0
KWT1 061231Z 33006KT 07/02 A3026 RMK A01 T00680020  RH  072%=      5-min Rain = 0
KWT1 061232Z 32007KT 07/02 A3026 RMK A01 T00680020  RH  071%=      5-min Rain = 0
KWT1 061233Z 32006KT 07/02 A3026 RMK A01 T00680020  RH  071%=      5-min Rain = 0
KWT1 061234Z 33007KT 07/02 A3026 RMK A01 T00670019  RH  071%=      5-min Rain = 0
KWT1 061235Z 33006KT 07/02 A3026 RMK A01 T00660019  RH  072%=      5-min Rain = 0
KWT1 061236Z 33005KT 07/02 A3026 RMK A01 T00650019  RH  072%=      5-min Rain = 0
KWT1 061237Z 34005KT 07/02 A3027 RMK A01 T00650019  RH  073%=      5-min Rain = 0
KWT1 061238Z 34005KT 07/02 A3027 RMK A01 T00650019  RH  073%=      5-min Rain = 0
KWT1 061239Z 33004KT 06/02 A3027 RMK A01 T00640019  RH  073%=      5-min Rain = 0
KWT1 061240Z 33004KT 06/02 A3027 RMK A01 T00640019  RH  073%=      5-min Rain = 0
KWT1 061241Z 34004KT 06/02 A3027 RMK A01 T00640018  RH  073%=      5-min Rain = 0
KWT1 061242Z 34004KT 06/02 A3027 RMK A01 T00640019  RH  073%=      5-min Rain = 0
KWT1 061243Z 34004KT 06/02 A3027 RMK A01 T00640018  RH  073%=      5-min Rain = 0
KWT1 061244Z 34003KT 06/02 A3027 RMK A01 T00640018  RH  073%=      5-min Rain = 0
KWT1 061245Z 34003KT 06/02 A3027 RMK A01 T00630018  RH  073%=      5-min Rain = 0
KWT1 061246Z 35003KT 06/02 A3027 RMK A01 T00630018  RH  073%=      5-min Rain = 0
KWT1 061247Z 36003KT 06/02 A3027 RMK A01 T00640019  RH  073%=      5-min Rain = 0
KWT1 061248Z 35004KT 06/02 A3027 RMK A01 T00640018  RH  073%=      5-min Rain = 0
KWT1 061249Z 35003KT 06/02 A3027 RMK A01 T00640018  RH  072%=      5-min Rain = 0
KWT1 061250Z 35003KT 06/02 A3027 RMK A01 T00630018  RH  072%=      5-min Rain = 0
KWT1 061251Z 34004KT 06/02 A3027 RMK A01 T00630018  RH  073%=      5-min Rain = 0
KWT1 061252Z 34005KT 06/02 A3028 RMK A01 T00630018  RH  073%=      5-min Rain = 0
KWT1 061253Z 33005KT 06/02 A3028 RMK A01 T00640018  RH  073%=      5-min Rain = 0
KWT1 061254Z 33007KT 06/02 A3028 RMK A01 T00640018  RH  072%=      5-min Rain = 0
KWT1 061255Z 33006KT 06/02 A3028 RMK A01 T00640018  RH  073%=      5-min Rain = 0
KWT1 061256Z 33006KT 06/02 A3028 RMK A01 T00640019  RH  073%=      5-min Rain = 0
KWT1 061257Z 32005KT 07/02 A3028 RMK A01 T00650019  RH  073%=      5-min Rain = 0
KWT1 061258Z 31005KT 06/02 A3028 RMK A01 T00640018  RH  073%=      5-min Rain = 0
KWT1 061259Z 32004KT 06/02 A3028 RMK A01 T00620017  RH  073%=      5-min Rain = 0
KWT1 061300Z 30003KT 06/02 A3028 RMK A01 T00590016  RH  074%=      5-min Rain = 0
KWT1 061301Z 30003KT 06/02 A3028 RMK A01 T00580016  RH  075%=      5-min Rain = 0
KWT1 061302Z 31004KT 06/02 A3028 RMK A01 T00580017  RH  075%=      5-min Rain = 0
KWT1 061303Z 31004KT 06/02 A3028 RMK A01 T00570017  RH  075%=      5-min Rain = 0
KWT1 061304Z 30003KT 06/02 A3028 RMK A01 T00570018  RH  076%=      5-min Rain = 0
KWT1 061305Z 31004KT 06/02 A3028 RMK A01 T00570018  RH  076%=      5-min Rain = 0
KWT1 061306Z 32003KT 06/02 A3028 RMK A01 T00570018  RH  076%=      5-min Rain = 0
KWT1 061307Z 32003KT 06/02 A3028 RMK A01 T00570018  RH  076%=      5-min Rain = 0
KWT1 061308Z 32004KT 06/02 A3028 RMK A01 T00560018  RH  076%=      5-min Rain = 0
KWT1 061309Z 32004KT 06/02 A3028 RMK A01 T00560018  RH  076%=      5-min Rain = 0
KWT1 061310Z 32004KT 06/02 A3028 RMK A01 T00570019  RH  076%=      5-min Rain = 0
KWT1 061311Z 32005KT 06/02 A3028 RMK A01 T00570019  RH  076%=      5-min Rain = 0
KWT1 061312Z 32005KT 06/02 A3029 RMK A01 T00570019  RH  076%=      5-min Rain = 0
KWT1 061313Z 32006KT 06/02 A3029 RMK A01 T00570018  RH  076%=      5-min Rain = 0
KWT1 061314Z 31006KT 05/02 A3029 RMK A01 T00540016  RH  077%=      5-min Rain = 0
KWT1 061315Z 32007KT 05/02 A3029 RMK A01 T00520016  RH  078%=      5-min Rain = 0
KWT1 061316Z 32007KT 05/02 A3029 RMK A01 T00520017  RH  078%=      5-min Rain = 0
KWT1 061317Z 32008KT 05/02 A3029 RMK A01 T00530019  RH  079%=      5-min Rain = 0
KWT1 061318Z 32007KT 06/02 A3029 RMK A01 T00550019  RH  078%=      5-min Rain = 0
KWT1 061319Z 32008KT 06/02 A3029 RMK A01 T00550019  RH  078%=      5-min Rain = 0
KWT1 061320Z 32008KT 06/02 A3029 RMK A01 T00550019  RH  078%=      5-min Rain = 0
KWT1 061321Z 33009KT 06/02 A3029 RMK A01 T00570021  RH  078%=      5-min Rain = 0
KWT1 061322Z 32009KT 06/02 A3029 RMK A01 T00580021  RH  077%=      5-min Rain = 0
KWT1 061323Z 33009KT 06/02 A3029 RMK A01 T00590020  RH  076%=      5-min Rain = 0
KWT1 061324Z 33009KT 06/02 A3029 RMK A01 T00580020  RH  076%=      5-min Rain = 0
KWT1 061325Z 33008KT 06/02 A3029 RMK A01 T00580020  RH  076%=      5-min Rain = 0
KWT1 061326Z 33009KT 06/02 A3029 RMK A01 T00590020  RH  076%=      5-min Rain = 0
KWT1 061327Z 33009KT 06/02 A3029 RMK A01 T00600020  RH  076%=      5-min Rain = 0
KWT1 061328Z 33008KT 06/02 A3029 RMK A01 T00600020  RH  076%=      5-min Rain = 0
KWT1 061329Z 33008KT 06/02 A3029 RMK A01 T00600020  RH  075%=      5-min Rain = 0
KWT1 061330Z 33008KT 06/02 A3029 RMK A01 T00600020  RH  075%=      5-min Rain = 0
KWT1 061331Z 33008KT 06/02 A3029 RMK A01 T00610020  RH  075%=      5-min Rain = 0
KWT1 061332Z 33008KT 06/02 A303 RMK A01 T00600020  RH  075%=      5-min Rain = 0
KWT1 061333Z 33007KT 06/02 A303 RMK A01 T00610020  RH  075%=      5-min Rain = 0
KWT1 061334Z 33008KT 06/02 A303 RMK A01 T00610020  RH  075%=      5-min Rain = 0
KWT1 061335Z 33007KT 06/02 A303 RMK A01 T00610020  RH  075%=      5-min Rain = 0
KWT1 061336Z 33007KT 06/02 A303 RMK A01 T00600020  RH  075%=      5-min Rain = 0
KWT1 061337Z 33007KT 06/02 A303 RMK A01 T00590019  RH  075%=      5-min Rain = 0
KWT1 061338Z 33007KT 06/02 A303 RMK A01 T00590019  RH  076%=      5-min Rain = 0
KWT1 061339Z 33007KT 06/02 A303 RMK A01 T00580019  RH  076%=      5-min Rain = 0
KWT1 061340Z 33007KT 06/02 A303 RMK A01 T00580019  RH  076%=      5-min Rain = 0
KWT1 061341Z 33007KT 06/02 A303 RMK A01 T00580019  RH  076%=      5-min Rain = 0
KWT1 061342Z 33007KT 06/02 A303 RMK A01 T00580019  RH  076%=      5-min Rain = 0
KWT1 061343Z 34006KT 06/02 A303 RMK A01 T00590020  RH  076%=      5-min Rain = 0
KWT1 061344Z 34007KT 06/02 A303 RMK A01 T00590020  RH  076%=      5-min Rain = 0
KWT1 061345Z 34007KT 06/02 A303 RMK A01 T00590019  RH  076%=      5-min Rain = 0
KWT1 061346Z 35006KT 06/02 A303 RMK A01 T00590020  RH  076%=      5-min Rain = 0
KWT1 061347Z 35006KT 06/02 A303 RMK A01 T00580019  RH  076%=      5-min Rain = 0
KWT1 061348Z 35006KT 06/02 A303 RMK A01 T00580019  RH  076%=      5-min Rain = 0
KWT1 061349Z 35007KT 06/02 A303 RMK A01 T00580019  RH  076%=      5-min Rain = 0
KWT1 061350Z 35006KT 06/02 A303 RMK A01 T00590020  RH  076%=      5-min Rain = 0
KWT1 061351Z 35006KT 06/02 A303 RMK A01 T00590020  RH  076%=      5-min Rain = 0
KWT1 061352Z 35006KT 06/02 A303 RMK A01 T00590019  RH  076%=      5-min Rain = 0
KWT1 061353Z 35006KT 06/02 A303 RMK A01 T00590019  RH  076%=      5-min Rain = 0
KWT1 061354Z 34007KT 06/02 A303 RMK A01 T00590020  RH  076%=      5-min Rain = 0
KWT1 061355Z 34007KT 06/02 A303 RMK A01 T00590020  RH  076%=      5-min Rain = 0
KWT1 061356Z 34007KT 06/02 A303 RMK A01 T00590019  RH  076%=      5-min Rain = 0
KWT1 061357Z 34006KT 06/02 A303 RMK A01 T00600020  RH  076%=      5-min Rain = 0
KWT1 061358Z 34007KT 06/02 A303 RMK A01 T00600020  RH  076%=      5-min Rain = 0
KWT1 061359Z 34007KT 06/02 A303 RMK A01 T00600020  RH  075%=      5-min Rain = 0
KWT1 061400Z 34007KT 06/02 A303 RMK A01 T00600020  RH  075%=      5-min Rain = 0
KWT1 061401Z 34007KT 06/02 A3031 RMK A01 T00610021  RH  075%=      5-min Rain = 0
KWT1 061402Z 34007KT 06/02 A3031 RMK A01 T00620021  RH  075%=      5-min Rain = 0
KWT1 061403Z 35007KT 06/02 A303 RMK A01 T00630021  RH  075%=      5-min Rain = 0
KWT1 061404Z 34007KT 06/02 A303 RMK A01 T00630021  RH  074%=      5-min Rain = 0
KWT1 061405Z 34007KT 06/02 A3031 RMK A01 T00640021  RH  074%=      5-min Rain = 0
KWT1 061406Z 34007KT 06/02 A3031 RMK A01 T00640021  RH  074%=      5-min Rain = 0
KWT1 061407Z 34006KT 07/02 A3031 RMK A01 T00650021  RH  074%=      5-min Rain = 0
KWT1 061408Z 34007KT 07/02 A3031 RMK A01 T00660021  RH  073%=      5-min Rain = 0
KWT1 061409Z 34007KT 07/02 A3031 RMK A01 T00660021  RH  073%=      5-min Rain = 0
KWT1 061410Z 34007KT 07/02 A3031 RMK A01 T00670021  RH  073%=      5-min Rain = 0
KWT1 061411Z 34008KT 07/02 A3031 RMK A01 T00670021  RH  072%=      5-min Rain = 0
KWT1 061412Z 34008KT 07/02 A3031 RMK A01 T00680021  RH  072%=      5-min Rain = 0
KWT1 061413Z 35007KT 07/02 A3031 RMK A01 T00690021  RH  072%=      5-min Rain = 0
KWT1 061414Z 34007KT 07/02 A3031 RMK A01 T00690022  RH  072%=      5-min Rain = 0
KWT1 061415Z 34008KT 07/02 A3031 RMK A01 T00690022  RH  072%=      5-min Rain = 0
KWT1 061416Z 35009KT 07/02 A3031 RMK A01 T00690021  RH  071%=      5-min Rain = 0
KWT1 061417Z 35008KT 07/02 A3031 RMK A01 T00700021  RH  071%=      5-min Rain = 0
KWT1 061418Z 35010KT 07/02 A3031 RMK A01 T00710021  RH  071%=      5-min Rain = 0
KWT1 061419Z 35009KT 07/02 A3031 RMK A01 T00710021  RH  070%=      5-min Rain = 0
KWT1 061420Z 35009KT 07/02 A3031 RMK A01 T00720022  RH  070%=      5-min Rain = 0
KWT1 061421Z 35010KT 07/02 A3031 RMK A01 T00720021  RH  070%=      5-min Rain = 0
KWT1 061422Z 35009KT 07/02 A3031 RMK A01 T00730021  RH  070%=      5-min Rain = 0
KWT1 061423Z 35010KT 07/02 A3031 RMK A01 T00730021  RH  070%=      5-min Rain = 0
KWT1 061424Z 35010KT 07/02 A3031 RMK A01 T00730021  RH  069%=      5-min Rain = 0
KWT1 061425Z 36010KT 07/02 A3031 RMK A01 T00740021  RH  069%=      5-min Rain = 0
KWT1 061426Z 00010KT 08/02 A3031 RMK A01 T00750020  RH  069%=      5-min Rain = 0
KWT1 061427Z 36009KT 08/02 A3031 RMK A01 T00750021  RH  068%=      5-min Rain = 0
KWT1 061428Z 00009KT 08/02 A3031 RMK A01 T00760021  RH  068%=      5-min Rain = 0
KWT1 061429Z 36010KT 08/02 A3031 RMK A01 T00760020  RH  068%=      5-min Rain = 0
KWT1 061430Z 36009KT 08/02 A3031 RMK A01 T00770020  RH  068%=      5-min Rain = 0
KWT1 061431Z 36008KT 08/02 A3031 RMK A01 T00770021  RH  067%=      5-min Rain = 0
KWT1 061432Z 00009KT 08/02 A3031 RMK A01 T00780021  RH  067%=      5-min Rain = 0
KWT1 061433Z 00010KT 08/02 A3031 RMK A01 T00790021  RH  067%=      5-min Rain = 0
KWT1 061434Z 36010KT 08/02 A3031 RMK A01 T00790020  RH  066%=      5-min Rain = 0
KWT1 061435Z 00012KT 08/02 A3031 RMK A01 T00790019  RH  066%=      5-min Rain = 0
KWT1 061436Z 00008KT 08/02 A3031 RMK A01 T00790019  RH  066%=      5-min Rain = 0
KWT1 061437Z 00008KT 08/02 A3031 RMK A01 T00810021  RH  066%=      5-min Rain = 0
KWT1 061438Z 00010KT 08/02 A3031 RMK A01 T00810021  RH  066%=      5-min Rain = 0
KWT1 061439Z 01012KT 08/02 A3032 RMK A01 T00820020  RH  065%=      5-min Rain = 0
KWT1 061440Z 00012KT 08/02 A3032 RMK A01 T00820019  RH  064%=      5-min Rain = 0
KWT1 061441Z 00011KT 08/02 A3032 RMK A01 T00820019  RH  064%=      5-min Rain = 0
KWT1 061442Z 01010KT 08/02 A3032 RMK A01 T00830019  RH  064%=      5-min Rain = 0
KWT1 061443Z 00010KT 08/02 A3032 RMK A01 T00830019  RH  064%=      5-min Rain = 0
KWT1 061444Z 00011KT 08/02 A3032 RMK A01 T00840020  RH  064%=      5-min Rain = 0
KWT1 061445Z 00009KT 08/02 A3032 RMK A01 T00840020  RH  064%=      5-min Rain = 0
KWT1 061446Z 36011KT 09/02 A3032 RMK A01 T00850020  RH  064%=      5-min Rain = 0
KWT1 061447Z 00009KT 09/02 A3032 RMK A01 T00850019  RH  063%=      5-min Rain = 0
KWT1 061448Z 01012KT 09/02 A3032 RMK A01 T00850019  RH  063%=      5-min Rain = 0
KWT1 061449Z 36011KT 09/02 A3032 RMK A01 T00850019  RH  063%=      5-min Rain = 0
KWT1 061450Z 35010KT 09/02 A3032 RMK A01 T00850019  RH  063%=      5-min Rain = 0
KWT1 061451Z 36010KT 09/02 A3032 RMK A01 T00860020  RH  063%=      5-min Rain = 0
KWT1 061452Z 35010KT 09/02 A3032 RMK A01 T00870020  RH  063%=      5-min Rain = 0
KWT1 061453Z 35011KT 09/02 A3032 RMK A01 T00870019  RH  062%=      5-min Rain = 0
KWT1 061454Z 35011KT 09/02 A3032 RMK A01 T00870019  RH  062%=      5-min Rain = 0
KWT1 061455Z 35011KT 09/02 A3032 RMK A01 T00870019  RH  062%=      5-min Rain = 0
KWT1 061456Z 36012KT 09/02 A3032 RMK A01 T00880019  RH  062%=      5-min Rain = 0
KWT1 061457Z 00012KT 09/02 A3032 RMK A01 T00880018  RH  061%=      5-min Rain = 0
KWT1 061458Z 36012KT 09/02 A3032 RMK A01 T00880017  RH  061%=      5-min Rain = 0
KWT1 061459Z 35012KT 09/02 A3032 RMK A01 T00890018  RH  061%=      5-min Rain = 0
KWT1 061500Z 35014KT 09/02 A3032 RMK A01 T00890017  RH  060%=      5-min Rain = 0
KWT1 061501Z 00013KT 09/02 A3032 RMK A01 T00890016  RH  060%=      5-min Rain = 0
KWT1 061502Z 35014KT 09/02 A3032 RMK A01 T00900018  RH  060%=      5-min Rain = 0
KWT1 061503Z 36014KT 09/02 A3033 RMK A01 T00910016  RH  060%=      5-min Rain = 0
KWT1 061504Z 35013G18KT 09/02 A3033 RMK A01 T00910017  RH  060%=      5-min Rain = 0
KWT1 061505Z 36014KT 09/02 A3033 RMK A01 T00910017  RH  060%=      5-min Rain = 0
KWT1 061506Z 01012KT 09/02 A3033 RMK A01 T00910016  RH  059%=      5-min Rain = 0
KWT1 061507Z 36012KT 09/02 A3033 RMK A01 T00920017  RH  060%=      5-min Rain = 0
KWT1 061508Z 36010KT 09/02 A3033 RMK A01 T00920018  RH  060%=      5-min Rain = 0
KWT1 061509Z 01014KT 09/02 A3033 RMK A01 T00930018  RH  059%=      5-min Rain = 0
KWT1 061510Z 01014G19KT 09/02 A3033 RMK A01 T00920016  RH  059%=      5-min Rain = 0
KWT1 061511Z 01017KT 09/02 A3033 RMK A01 T00910015  RH  059%=      5-min Rain = 0
KWT1 061512Z 01014KT 09/02 A3033 RMK A01 T00900015  RH  060%=      5-min Rain = 0
KWT1 061513Z 01014KT 09/02 A3033 RMK A01 T00900016  RH  060%=      5-min Rain = 0
KWT1 061514Z 01014KT 09/02 A3033 RMK A01 T00900016  RH  060%=      5-min Rain = 0
KWT1 061515Z 01014KT 09/02 A3033 RMK A01 T00900016  RH  060%=      5-min Rain = 0
KWT1 061516Z 01014KT 09/02 A3033 RMK A01 T00910016  RH  060%=      5-min Rain = 0
KWT1 061517Z 00012KT 09/02 A3033 RMK A01 T00910017  RH  060%=      5-min Rain = 0
KWT1 061518Z 36013KT 09/02 A3033 RMK A01 T00920018  RH  060%=      5-min Rain = 0
KWT1 061519Z 00014KT 09/02 A3033 RMK A01 T00930017  RH  059%=      5-min Rain = 0
KWT1 061520Z 36014KT 09/02 A3033 RMK A01 T00920017  RH  059%=      5-min Rain = 0
KWT1 061521Z 00016KT 09/02 A3033 RMK A01 T00930016  RH  059%=      5-min Rain = 0
KWT1 061522Z 35014KT 09/02 A3033 RMK A01 T00920015  RH  059%=      5-min Rain = 0
KWT1 061523Z 00013KT 09/02 A3034 RMK A01 T00920016  RH  059%=      5-min Rain = 0
KWT1 061524Z 35013KT 09/02 A3034 RMK A01 T00930017  RH  059%=      5-min Rain = 0
KWT1 061525Z 36013G18KT 09/02 A3034 RMK A01 T00930016  RH  059%=      5-min Rain = 0
KWT1 061526Z 36012G18KT 09/02 A3034 RMK A01 T00940017  RH  059%=      5-min Rain = 0
KWT1 061527Z 00013KT 09/02 A3034 RMK A01 T00940017  RH  058%=      5-min Rain = 0
KWT1 061528Z 36011KT 09/02 A3034 RMK A01 T00940016  RH  058%=      5-min Rain = 0
KWT1 061529Z 00011KT 09/02 A3034 RMK A01 T00940017  RH  059%=      5-min Rain = 0
KWT1 061530Z 01012KT 10/02 A3034 RMK A01 T00950018  RH  058%=      5-min Rain = 0
KWT1 061531Z 01010KT 10/02 A3034 RMK A01 T00970018  RH  058%=      5-min Rain = 0
KWT1 061532Z 01011KT 10/02 A3034 RMK A01 T00980018  RH  058%=      5-min Rain = 0
KWT1 061533Z 00009KT 10/02 A3034 RMK A01 T00980017  RH  057%=      5-min Rain = 0
KWT1 061534Z 01011G19KT 10/02 A3034 RMK A01 T00990018  RH  057%=      5-min Rain = 0
KWT1 061535Z 00014KT 10/02 A3034 RMK A01 T00990016  RH  056%=      5-min Rain = 0
KWT1 061536Z 01013G18KT 10/01 A3035 RMK A01 T00970014  RH  056%=      5-min Rain = 0
KWT1 061537Z 01016KT 10/01 A3035 RMK A01 T00960014  RH  057%=      5-min Rain = 0
KWT1 061538Z 01012KT 09/01 A3034 RMK A01 T00940013  RH  057%=      5-min Rain = 0
KWT1 061539Z 01014KT 09/01 A3035 RMK A01 T00930014  RH  058%=      5-min Rain = 0
KWT1 061540Z 01011KT 09/01 A3035 RMK A01 T00930014  RH  058%=      5-min Rain = 0
KWT1 061541Z 01011KT 09/02 A3035 RMK A01 T00930015  RH  058%=      5-min Rain = 0
KWT1 061542Z 01010KT 09/02 A3035 RMK A01 T00940015  RH  058%=      5-min Rain = 0
KWT1 061543Z 01011KT 09/02 A3035 RMK A01 T00940015  RH  058%=      5-min Rain = 0
KWT1 061544Z 02010KT 09/02 A3035 RMK A01 T00940015  RH  058%=      5-min Rain = 0
KWT1 061545Z 02011KT 10/02 A3035 RMK A01 T00950015  RH  058%=      5-min Rain = 0
KWT1 061546Z 01011KT 10/02 A3035 RMK A01 T00950015  RH  057%=      5-min Rain = 0
KWT1 061547Z 01014KT 10/02 A3035 RMK A01 T00950015  RH  057%=      5-min Rain = 0
KWT1 061548Z 01013KT 10/02 A3035 RMK A01 T00950016  RH  057%=      5-min Rain = 0
KWT1 061549Z 01014KT 10/02 A3035 RMK A01 T00970016  RH  057%=      5-min Rain = 0
KWT1 061550Z 02010KT 10/02 A3035 RMK A01 T00980016  RH  057%=      5-min Rain = 0
KWT1 061551Z 02010KT 10/02 A3035 RMK A01 T01000017  RH  056%=      5-min Rain = 0
KWT1 061552Z 01009KT 10/02 A3035 RMK A01 T01020018  RH  056%=      5-min Rain = 0
KWT1 061553Z 01010KT 10/02 A3035 RMK A01 T01030018  RH  055%=      5-min Rain = 0
KWT1 061554Z 01011KT 10/02 A3035 RMK A01 T01040018  RH  055%=      5-min Rain = 0
KWT1 061555Z 01011KT 10/02 A3036 RMK A01 T01040016  RH  054%=      5-min Rain = 0
KWT1 061556Z 02010KT 10/02 A3036 RMK A01 T01040017  RH  055%=      5-min Rain = 0
KWT1 061557Z 02013KT 11/02 A3036 RMK A01 T01050017  RH  055%=      5-min Rain = 0
KWT1 061558Z 02014KT 10/02 A3036 RMK A01 T01040015  RH  054%=      5-min Rain = 0
KWT1 061559Z 02014KT 10/02 A3036 RMK A01 T01030015  RH  054%=      5-min Rain = 0
KWT1 061600Z 02014KT 10/02 A3036 RMK A01 T01030015  RH  054%=      5-min Rain = 0
KWT1 061601Z 02013KT 10/01 A3036 RMK A01 T01020014  RH  054%=      5-min Rain = 0
KWT1 061602Z 02013KT 10/02 A3036 RMK A01 T01020015  RH  055%=      5-min Rain = 0
KWT1 061603Z 02012KT 10/02 A3036 RMK A01 T01030016  RH  055%=      5-min Rain = 0
KWT1 061604Z 01013KT 11/02 A3036 RMK A01 T01050017  RH  054%=      5-min Rain = 0
KWT1 061605Z 01013KT 10/02 A3036 RMK A01 T01040016  RH  054%=      5-min Rain = 0
KWT1 061606Z 02014KT 11/02 A3036 RMK A01 T01050016  RH  054%=      5-min Rain = 0
KWT1 061607Z 02015KT 11/02 A3036 RMK A01 T01050015  RH  054%=      5-min Rain = 0
KWT1 061608Z 01012KT 10/02 A3036 RMK A01 T01040015  RH  054%=      5-min Rain = 0
KWT1 061609Z 02012KT 11/02 A3036 RMK A01 T01050016  RH  054%=      5-min Rain = 0
KWT1 061610Z 02014KT 11/02 A3036 RMK A01 T01050015  RH  054%=      5-min Rain = 0
KWT1 061611Z 03011KT 11/02 A3036 RMK A01 T01050015  RH  054%=      5-min Rain = 0
KWT1 061612Z 03011KT 11/02 A3036 RMK A01 T01050017  RH  054%=      5-min Rain = 0
KWT1 061613Z 03011KT 11/02 A3036 RMK A01 T01070019  RH  055%=      5-min Rain = 0
KWT1 061614Z 02012KT 11/02 A3036 RMK A01 T01090019  RH  053%=      5-min Rain = 0
KWT1 061615Z 03012KT 11/02 A3036 RMK A01 T01090017  RH  053%=      5-min Rain = 0
KWT1 061616Z 02012KT 11/02 A3036 RMK A01 T01080016  RH  053%=      5-min Rain = 0
KWT1 061617Z 02012KT 11/02 A3036 RMK A01 T01070016  RH  053%=      5-min Rain = 0
KWT1 061618Z 03013KT 11/02 A3036 RMK A01 T01080016  RH  053%=      5-min Rain = 0
KWT1 061619Z 03014KT 11/02 A3036 RMK A01 T01090017  RH  053%=      5-min Rain = 0
KWT1 061620Z 03011KT 11/02 A3036 RMK A01 T01090016  RH  053%=      5-min Rain = 0
KWT1 061621Z 03013KT 11/02 A3036 RMK A01 T01100017  RH  053%=      5-min Rain = 0
KWT1 061622Z 03013KT 11/02 A3036 RMK A01 T01090016  RH  052%=      5-min Rain = 0
KWT1 061623Z 03013KT 11/02 A3036 RMK A01 T01090016  RH  053%=      5-min Rain = 0
KWT1 061624Z 02010KT 11/01 A3036 RMK A01 T01060014  RH  053%=      5-min Rain = 0
KWT1 061625Z 03013KT 11/01 A3036 RMK A01 T01050014  RH  053%=      5-min Rain = 0
KWT1 061626Z 03011KT 10/01 A3036 RMK A01 T01040014  RH  054%=      5-min Rain = 0
KWT1 061627Z 03013KT 10/02 A3036 RMK A01 T01040016  RH  054%=      5-min Rain = 0
KWT1 061628Z 03013KT 11/02 A3036 RMK A01 T01060016  RH  054%=      5-min Rain = 0
KWT1 061629Z 03010KT 11/02 A3036 RMK A01 T01060016  RH  054%=      5-min Rain = 0
KWT1 061630Z 03011KT 11/02 A3036 RMK A01 T01070017  RH  054%=      5-min Rain = 0
KWT1 061631Z 02012KT 11/02 A3036 RMK A01 T01090017  RH  053%=      5-min Rain = 0
KWT1 061632Z 02012KT 11/02 A3036 RMK A01 T01070016  RH  053%=      5-min Rain = 0
KWT1 061633Z 01012KT 11/02 A3036 RMK A01 T01070016  RH  053%=      5-min Rain = 0
KWT1 061634Z 01011KT 11/02 A3036 RMK A01 T01080017  RH  053%=      5-min Rain = 0
KWT1 061635Z 01010G15KT 11/02 A3036 RMK A01 T01100018  RH  053%=      5-min Rain = 0
KWT1 061636Z 01012KT 11/02 A3036 RMK A01 T01110018  RH  052%=      5-min Rain = 0
KWT1 061637Z 01013KT 11/02 A3036 RMK A01 T01120017  RH  052%=      5-min Rain = 0
KWT1 061638Z 02011KT 11/02 A3036 RMK A01 T01110017  RH  052%=      5-min Rain = 0
KWT1 061639Z 02012KT 11/02 A3036 RMK A01 T01120018  RH  052%=      5-min Rain = 0
KWT1 061640Z 03011KT 11/02 A3036 RMK A01 T01120017  RH  052%=      5-min Rain = 0
KWT1 061641Z 03012KT 11/02 A3036 RMK A01 T01120018  RH  053%=      5-min Rain = 0
KWT1 061642Z 02011KT 11/02 A3036 RMK A01 T01130018  RH  052%=      5-min Rain = 0
KWT1 061643Z 03011KT 11/02 A3036 RMK A01 T01130018  RH  052%=      5-min Rain = 0
KWT1 061644Z 03011KT 11/02 A3036 RMK A01 T01130018  RH  052%=      5-min Rain = 0
KWT1 061645Z 03012KT 11/02 A3036 RMK A01 T01140019  RH  052%=      5-min Rain = 0
KWT1 061646Z 03012KT 11/02 A3036 RMK A01 T01140018  RH  052%=      5-min Rain = 0
KWT1 061647Z 04011KT 11/02 A3036 RMK A01 T01130018  RH  052%=      5-min Rain = 0
KWT1 061648Z 02012KT 11/02 A3036 RMK A01 T01120017  RH  052%=      5-min Rain = 0
KWT1 061649Z 03011KT 11/02 A3036 RMK A01 T01110017  RH  052%=      5-min Rain = 0
KWT1 061650Z 04013KT 11/02 A3036 RMK A01 T01110018  RH  052%=      5-min Rain = 0
KWT1 061651Z 03012KT 11/02 A3036 RMK A01 T01120018  RH  052%=      5-min Rain = 0
KWT1 061652Z 03011KT 11/02 A3036 RMK A01 T01120018  RH  052%=      5-min Rain = 0
KWT1 061653Z 01011KT 11/02 A3036 RMK A01 T01140020  RH  052%=      5-min Rain = 0
KWT1 061654Z 02011KT 12/02 A3036 RMK A01 T01150019  RH  052%=      5-min Rain = 0
KWT1 061655Z 02010KT 12/02 A3036 RMK A01 T01150019  RH  051%=      5-min Rain = 0
KWT1 061656Z 02009KT 12/02 A3036 RMK A01 T01160020  RH  052%=      5-min Rain = 0
KWT1 061657Z 03012KT 12/02 A3036 RMK A01 T01180020  RH  051%=      5-min Rain = 0
KWT1 061658Z 01011KT 12/02 A3036 RMK A01 T01180019  RH  051%=      5-min Rain = 0
KWT1 061659Z 01011KT 12/02 A3036 RMK A01 T01170018  RH  051%=      5-min Rain = 0
KWT1 061700Z 02010G15KT 12/02 A3036 RMK A01 T01180021  RH  051%=      5-min Rain = 0
KWT1 061701Z 02013KT 12/02 A3036 RMK A01 T01210020  RH  050%=      5-min Rain = 0
KWT1 061702Z 02015KT 12/02 A3036 RMK A01 T01190017  RH  050%=      5-min Rain = 0
KWT1 061703Z 01014KT 12/02 A3036 RMK A01 T01160018  RH  051%=      5-min Rain = 0
KWT1 061704Z 02011KT 12/02 A3036 RMK A01 T01150018  RH  051%=      5-min Rain = 0
KWT1 061705Z 01010KT 11/02 A3036 RMK A01 T01140017  RH  052%=      5-min Rain = 0
KWT1 061706Z 02011KT 11/02 A3036 RMK A01 T01140019  RH  052%=      5-min Rain = 0
KWT1 061707Z 04011KT 12/02 A3036 RMK A01 T01170022  RH  052%=      5-min Rain = 0
KWT1 061708Z 04013KT 12/02 A3036 RMK A01 T01200020  RH  051%=      5-min Rain = 0
KWT1 061709Z 04011KT 12/02 A3036 RMK A01 T01190019  RH  051%=      5-min Rain = 0
KWT1 061710Z 02012KT 12/02 A3035 RMK A01 T01190021  RH  051%=      5-min Rain = 0
KWT1 061711Z 02010KT 12/02 A3035 RMK A01 T01200020  RH  050%=      5-min Rain = 0
KWT1 061712Z 03009KT 12/02 A3035 RMK A01 T01210021  RH  050%=      5-min Rain = 0
KWT1 061713Z 02009KT 12/02 A3035 RMK A01 T01220021  RH  050%=      5-min Rain = 0
KWT1 061714Z 01014KT 12/02 A3035 RMK A01 T01230021  RH  050%=      5-min Rain = 0
KWT1 061715Z 02014KT 12/02 A3035 RMK A01 T01210019  RH  050%=      5-min Rain = 0
KWT1 061716Z 02011KT 12/02 A3035 RMK A01 T01190019  RH  050%=      5-min Rain = 0
KWT1 061717Z 02009KT 12/02 A3035 RMK A01 T01190020  RH  050%=      5-min Rain = 0
KWT1 061718Z 02008KT 12/02 A3035 RMK A01 T01200020  RH  050%=      5-min Rain = 0
KWT1 061719Z 02011KT 12/02 A3035 RMK A01 T01190020  RH  051%=      5-min Rain = 0
KWT1 061720Z 04011KT 12/02 A3035 RMK A01 T01200021  RH  051%=      5-min Rain = 0
KWT1 061721Z 03014KT 12/02 A3036 RMK A01 T01230021  RH  050%=      5-min Rain = 0
KWT1 061722Z 02011KT 12/02 A3035 RMK A01 T01220018  RH  049%=      5-min Rain = 0
KWT1 061723Z 02012KT 12/02 A3035 RMK A01 T01220019  RH  049%=      5-min Rain = 0
KWT1 061724Z 04010KT 12/02 A3035 RMK A01 T01220019  RH  049%=      5-min Rain = 0
KWT1 061725Z 02009KT 12/02 A3035 RMK A01 T01230020  RH  050%=      5-min Rain = 0
KWT1 061726Z 02011KT 13/02 A3035 RMK A01 T01250020  RH  049%=      5-min Rain = 0
KWT1 061727Z 02012KT 13/02 A3035 RMK A01 T01250019  RH  048%=      5-min Rain = 0
KWT1 061728Z 02012KT 12/02 A3035 RMK A01 T01230019  RH  049%=      5-min Rain = 0
KWT1 061729Z 02010KT 12/02 A3035 RMK A01 T01230019  RH  049%=      5-min Rain = 0
KWT1 061730Z 01009KT 12/02 A3035 RMK A01 T01240020  RH  049%=      5-min Rain = 0
KWT1 061731Z 02010KT 13/02 A3035 RMK A01 T01250020  RH  048%=      5-min Rain = 0
KWT1 061732Z 02008KT 13/02 A3035 RMK A01 T01250019  RH  048%=      5-min Rain = 0
KWT1 061733Z 02009KT 13/02 A3035 RMK A01 T01270020  RH  048%=      5-min Rain = 0
KWT1 061734Z 02012KT 13/02 A3035 RMK A01 T01280020  RH  048%=      5-min Rain = 0
KWT1 061735Z 02009KT 13/02 A3035 RMK A01 T01270019  RH  048%=      5-min Rain = 0
KWT1 061736Z 04010KT 13/02 A3035 RMK A01 T01270020  RH  048%=      5-min Rain = 0
KWT1 061737Z 03011KT 13/02 A3035 RMK A01 T01280020  RH  048%=      5-min Rain = 0
KWT1 061738Z 04011KT 13/02 A3035 RMK A01 T01270019  RH  048%=      5-min Rain = 0
KWT1 061739Z 01011KT 13/02 A3035 RMK A01 T01280020  RH  048%=      5-min Rain = 0
KWT1 061740Z 02012KT 13/02 A3035 RMK A01 T01280019  RH  048%=      5-min Rain = 0
KWT1 061741Z 03012KT 13/02 A3035 RMK A01 T01280019  RH  047%=      5-min Rain = 0
KWT1 061742Z 02011KT 13/02 A3035 RMK A01 T01280019  RH  047%=      5-min Rain = 0
KWT1 061743Z 03010KT 13/02 A3035 RMK A01 T01270018  RH  048%=      5-min Rain = 0
KWT1 061744Z 03011KT 13/02 A3035 RMK A01 T01260019  RH  048%=      5-min Rain = 0
KWT1 061745Z 02009KT 13/02 A3035 RMK A01 T01270019  RH  048%=      5-min Rain = 0
KWT1 061746Z 02011KT 13/02 A3035 RMK A01 T01260019  RH  048%=      5-min Rain = 0
KWT1 061747Z 02010KT 13/02 A3035 RMK A01 T01270020  RH  048%=      5-min Rain = 0
KWT1 061748Z 02011KT 13/02 A3035 RMK A01 T01270020  RH  048%=      5-min Rain = 0
KWT1 061749Z 02009KT 13/02 A3035 RMK A01 T01300021  RH  048%=      5-min Rain = 0
KWT1 061750Z 02010KT 13/02 A3035 RMK A01 T01310021  RH  047%=      5-min Rain = 0
KWT1 061751Z 01010KT 13/02 A3035 RMK A01 T01310020  RH  047%=      5-min Rain = 0
KWT1 061752Z 03010KT 13/02 A3035 RMK A01 T01300020  RH  047%=      5-min Rain = 0
KWT1 061753Z 03010KT 13/02 A3035 RMK A01 T01290021  RH  048%=      5-min Rain = 0
KWT1 061754Z 02008KT 13/02 A3035 RMK A01 T01290020  RH  048%=      5-min Rain = 0
KWT1 061755Z 01009KT 13/02 A3035 RMK A01 T01290021  RH  048%=      5-min Rain = 0
KWT1 061756Z 01010KT 13/02 A3035 RMK A01 T01310021  RH  047%=      5-min Rain = 0
KWT1 061757Z 02010KT 13/02 A3034 RMK A01 T01310020  RH  047%=      5-min Rain = 0
KWT1 061758Z 01009KT 13/02 A3034 RMK A01 T01320022  RH  047%=      5-min Rain = 0
KWT1 061759Z 01008KT 13/02 A3034 RMK A01 T01330021  RH  047%=      5-min Rain = 0
KWT1 061800Z 01008KT 13/02 A3034 RMK A01 T01320021  RH  047%=      5-min Rain = 0
KWT1 061801Z 02011KT 13/02 A3034 RMK A01 T01320022  RH  047%=      5-min Rain = 0
KWT1 061802Z 03010KT 13/02 A3034 RMK A01 T01330020  RH  046%=      5-min Rain = 0
KWT1 061803Z 03010KT 13/02 A3034 RMK A01 T01320020  RH  047%=      5-min Rain = 0
KWT1 061804Z 03007KT 13/02 A3034 RMK A01 T01310020  RH  047%=      5-min Rain = 0
KWT1 061805Z 04004KT 13/02 A3034 RMK A01 T01320021  RH  047%=      5-min Rain = 0
KWT1 061806Z 01005KT 13/02 A3034 RMK A01 T01330021  RH  046%=      5-min Rain = 0
KWT1 061807Z 02010KT 13/02 A3034 RMK A01 T01340022  RH  047%=      5-min Rain = 0
KWT1 061808Z 02008KT 14/02 A3034 RMK A01 T01350021  RH  046%=      5-min Rain = 0
KWT1 061809Z 01007KT 14/02 A3034 RMK A01 T01350021  RH  046%=      5-min Rain = 0
KWT1 061810Z 02009KT 14/02 A3034 RMK A01 T01350021  RH  046%=      5-min Rain = 0
KWT1 061811Z 02007KT 14/02 A3034 RMK A01 T01350021  RH  046%=      5-min Rain = 0
KWT1 061812Z 03005KT 14/02 A3034 RMK A01 T01350021  RH  046%=      5-min Rain = 0
KWT1 061813Z 04005KT 14/02 A3034 RMK A01 T01370022  RH  046%=      5-min Rain = 0
KWT1 061814Z 03006G11KT 14/02 A3034 RMK A01 T01390024  RH  046%=      5-min Rain = 0
KWT1 061815Z 04010KT 14/02 A3034 RMK A01 T01420023  RH  044%=      5-min Rain = 0
KWT1 061816Z 04008KT 14/02 A3034 RMK A01 T01410021  RH  044%=      5-min Rain = 0
KWT1 061817Z 03007KT 14/02 A3034 RMK A01 T01410020  RH  044%=      5-min Rain = 0
KWT1 061818Z 04008KT 14/02 A3034 RMK A01 T01410020  RH  044%=      5-min Rain = 0
KWT1 061819Z 04007KT 14/02 A3034 RMK A01 T01410021  RH  044%=      5-min Rain = 0
KWT1 061820Z 03007KT 14/02 A3034 RMK A01 T01420023  RH  045%=      5-min Rain = 0
KWT1 061821Z 03009KT 14/02 A3034 RMK A01 T01440023  RH  044%=      5-min Rain = 0
KWT1 061822Z 04008KT 14/02 A3034 RMK A01 T01430021  RH  044%=      5-min Rain = 0
KWT1 061823Z 04009KT 14/02 A3034 RMK A01 T01410020  RH  044%=      5-min Rain = 0
KWT1 061824Z 04008KT 14/02 A3034 RMK A01 T01380019  RH  044%=      5-min Rain = 0
KWT1 061825Z 03009KT 14/02 A3034 RMK A01 T01370020  RH  045%=      5-min Rain = 0
KWT1 061826Z 02009KT 14/02 A3034 RMK A01 T01370020  RH  045%=      5-min Rain = 0
KWT1 061827Z 01006KT 14/02 A3034 RMK A01 T01370020  RH  045%=      5-min Rain = 0
KWT1 061828Z 02006KT 14/02 A3034 RMK A01 T01380022  RH  046%=      5-min Rain = 0
KWT1 061829Z 02006KT 14/02 A3034 RMK A01 T01390022  RH  045%=      5-min Rain = 0
KWT1 061830Z 03004KT 14/02 A3034 RMK A01 T01370019  RH  045%=      5-min Rain = 0
KWT1 061831Z 04004KT 14/02 A3034 RMK A01 T01360019  RH  045%=      5-min Rain = 0
KWT1 061832Z 05006KT 14/02 A3033 RMK A01 T01380022  RH  045%=      5-min Rain = 0
KWT1 061833Z 04007KT 14/02 A3033 RMK A01 T01430023  RH  044%=      5-min Rain = 0
KWT1 061834Z 03006KT 14/02 A3033 RMK A01 T01440020  RH  043%=      5-min Rain = 0
KWT1 061835Z 05005KT 14/02 A3033 RMK A01 T01410019  RH  043%=      5-min Rain = 0
KWT1 061836Z 05005KT 14/02 A3033 RMK A01 T01410019  RH  044%=      5-min Rain = 0
KWT1 061837Z 03005KT 14/02 A3033 RMK A01 T01420019  RH  043%=      5-min Rain = 0
KWT1 061838Z 36004KT 14/02 A3033 RMK A01 T01420020  RH  044%=      5-min Rain = 0
KWT1 061839Z 36006KT 14/02 A3033 RMK A01 T01430021  RH  044%=      5-min Rain = 0
KWT1 061840Z 36005KT 14/02 A3033 RMK A01 T01420021  RH  044%=      5-min Rain = 0
KWT1 061841Z 35003KT 14/02 A3033 RMK A01 T01420020  RH  044%=      5-min Rain = 0
KWT1 061842Z 04002KT 14/02 A3033 RMK A01 T01400020  RH  044%=      5-min Rain = 0
KWT1 061843Z 36004KT 14/02 A3033 RMK A01 T01410022  RH  045%=      5-min Rain = 0
KWT1 061844Z 36003KT 14/02 A3033 RMK A01 T01420021  RH  044%=      5-min Rain = 0
KWT1 061845Z 02004KT 14/02 A3033 RMK A01 T01420021  RH  044%=      5-min Rain = 0
KWT1 061846Z 06005KT 14/02 A3033 RMK A01 T01420022  RH  044%=      5-min Rain = 0
KWT1 061847Z 06005KT 15/02 A3033 RMK A01 T01450022  RH  043%=      5-min Rain = 0
KWT1 061848Z 04005KT 15/02 A3033 RMK A01 T01460021  RH  043%=      5-min Rain = 0
KWT1 061849Z 03006KT 15/02 A3033 RMK A01 T01470022  RH  043%=      5-min Rain = 0
KWT1 061850Z 02005KT 15/02 A3033 RMK A01 T01480019  RH  042%=      5-min Rain = 0
KWT1 061851Z 03005KT 15/02 A3033 RMK A01 T01480020  RH  042%=      5-min Rain = 0
KWT1 061852Z 02004KT 15/02 A3033 RMK A01 T01480019  RH  041%=      5-min Rain = 0
KWT1 061853Z 04002KT 15/02 A3033 RMK A01 T01450015  RH  041%=      5-min Rain = 0
KWT1 061854Z 36005KT 14/02 A3033 RMK A01 T01430017  RH  042%=      5-min Rain = 0
KWT1 061855Z 02007KT 14/02 A3033 RMK A01 T01430019  RH  043%=      5-min Rain = 0
KWT1 061856Z 01007KT 14/02 A3033 RMK A01 T01440019  RH  043%=      5-min Rain = 0
KWT1 061857Z 02005KT 14/02 A3033 RMK A01 T01430018  RH  043%=      5-min Rain = 0
KWT1 061858Z 02003KT 14/02 A3033 RMK A01 T01430018  RH  043%=      5-min Rain = 0
KWT1 061859Z 01003KT 14/02 A3033 RMK A01 T01430018  RH  043%=      5-min Rain = 0
KWT1 061900Z 03004KT 14/02 A3033 RMK A01 T01440019  RH  043%=      5-min Rain = 0
KWT1 061901Z 05003KT 14/02 A3033 RMK A01 T01440019  RH  043%=      5-min Rain = 0
KWT1 061902Z 05002KT 15/02 A3033 RMK A01 T01450018  RH  042%=      5-min Rain = 0
KWT1 061903Z 05001KT 15/02 A3033 RMK A01 T01450019  RH  042%=      5-min Rain = 0
KWT1 061904Z 33002KT 15/02 A3033 RMK A01 T01470023  RH  043%=      5-min Rain = 0
KWT1 061905Z 35001KT 15/02 A3033 RMK A01 T01480021  RH  042%=      5-min Rain = 0
KWT1 061906Z 01004KT 15/02 A3033 RMK A01 T01480020  RH  042%=      5-min Rain = 0
KWT1 061907Z 02005KT 15/02 A3033 RMK A01 T01490021  RH  042%=      5-min Rain = 0
KWT1 061908Z 33003KT 15/02 A3033 RMK A01 T01470018  RH  042%=      5-min Rain = 0
KWT1 061909Z 30002KT 14/02 A3033 RMK A01 T01430016  RH  042%=      5-min Rain = 0
KWT1 061910Z 04001KT 14/02 A3033 RMK A01 T01420019  RH  043%=      5-min Rain = 0
KWT1 061911Z 29000KT 15/02 A3033 RMK A01 T01450019  RH  042%=      5-min Rain = 0
KWT1 061912Z 22000KT 15/02 A3033 RMK A01 T01450018  RH  042%=      5-min Rain = 0
KWT1 061913Z 16000KT 15/02 A3032 RMK A01 T01470021  RH  042%=      5-min Rain = 0
KWT1 061914Z 03001KT 15/02 A3032 RMK A01 T01510023  RH  042%=      5-min Rain = 0
KWT1 061915Z 32000KT 15/02 A3032 RMK A01 T01530023  RH  041%=      5-min Rain = 0
KWT1 061916Z 33002KT 16/02 A3032 RMK A01 T01550021  RH  041%=      5-min Rain = 0
KWT1 061917Z 35001KT 15/02 A3032 RMK A01 T01540020  RH  040%=      5-min Rain = 0
KWT1 061918Z 34004KT 15/02 A3032 RMK A01 T01530018  RH  040%=      5-min Rain = 0
KWT1 061919Z 31004KT 15/02 A3032 RMK A01 T01520020  RH  041%=      5-min Rain = 0
KWT1 061920Z 33004KT 15/02 A3032 RMK A01 T01510018  RH  040%=      5-min Rain = 0
KWT1 061921Z 36004KT 15/02 A3032 RMK A01 T01490015  RH  040%=      5-min Rain = 0
KWT1 061922Z 36003KT 15/02 A3032 RMK A01 T01470016  RH  041%=      5-min Rain = 0
KWT1 061923Z 04004KT 15/02 A3032 RMK A01 T01470016  RH  041%=      5-min Rain = 0
KWT1 061924Z 05005KT 15/02 A3032 RMK A01 T01490020  RH  042%=      5-min Rain = 0
KWT1 061925Z 03006KT 15/02 A3032 RMK A01 T01520020  RH  041%=      5-min Rain = 0
KWT1 061926Z 03005KT 15/02 A3032 RMK A01 T01510019  RH  041%=      5-min Rain = 0
KWT1 061927Z 00004KT 15/02 A3032 RMK A01 T01500019  RH  041%=      5-min Rain = 0
KWT1 061928Z 33003KT 15/02 A3032 RMK A01 T01480017  RH  041%=      5-min Rain = 0
KWT1 061929Z 29002KT 15/02 A3032 RMK A01 T01460017  RH  041%=      5-min Rain = 0
KWT1 061930Z 05002KT 15/02 A3032 RMK A01 T01460017  RH  042%=      5-min Rain = 0
KWT1 061931Z 03002KT 15/02 A3031 RMK A01 T01480018  RH  042%=      5-min Rain = 0
KWT1 061932Z 05002KT 15/02 A3031 RMK A01 T01500020  RH  041%=      5-min Rain = 0
KWT1 061933Z 05003KT 15/02 A3032 RMK A01 T01510020  RH  041%=      5-min Rain = 0
KWT1 061934Z 01003KT 15/02 A3032 RMK A01 T01520020  RH  041%=      5-min Rain = 0
KWT1 061935Z 01003KT 15/02 A3032 RMK A01 T01530020  RH  041%=      5-min Rain = 0
KWT1 061936Z 34004KT 16/02 A3032 RMK A01 T01550021  RH  041%=      5-min Rain = 0
KWT1 061937Z 33004KT 16/02 A3032 RMK A01 T01550020  RH  040%=      5-min Rain = 0
KWT1 061938Z 33002KT 15/02 A3032 RMK A01 T01520016  RH  040%=      5-min Rain = 0
KWT1 061939Z 02001KT 15/02 A3032 RMK A01 T01500017  RH  041%=      5-min Rain = 0
KWT1 061940Z 06001KT 15/02 A3031 RMK A01 T01500018  RH  041%=      5-min Rain = 0
KWT1 061941Z 10001KT 15/02 A3031 RMK A01 T01510019  RH  041%=      5-min Rain = 0
KWT1 061942Z 08003KT 16/02 A3031 RMK A01 T01550021  RH  040%=      5-min Rain = 0
KWT1 061943Z 08005KT 16/02 A3031 RMK A01 T01580020  RH  039%=      5-min Rain = 0
KWT1 061944Z 08003KT 16/02 A3031 RMK A01 T01570019  RH  039%=      5-min Rain = 0
KWT1 061945Z 10001KT 16/02 A3031 RMK A01 T01560018  RH  039%=      5-min Rain = 0
KWT1 061946Z 10003KT 16/02 A3031 RMK A01 T01560019  RH  040%=      5-min Rain = 0
KWT1 061947Z 14002KT 16/02 A3031 RMK A01 T01560018  RH  039%=      5-min Rain = 0
KWT1 061948Z 15002KT 16/02 A3031 RMK A01 T01560019  RH  040%=      5-min Rain = 0
KWT1 061949Z 15003KT 16/02 A3031 RMK A01 T01570020  RH  040%=      5-min Rain = 0
KWT1 061950Z 13002KT 16/02 A3031 RMK A01 T01580018  RH  039%=      5-min Rain = 0
KWT1 061951Z 05003KT 16/02 A3031 RMK A01 T01570019  RH  039%=      5-min Rain = 0
KWT1 061952Z 05003KT 16/02 A3031 RMK A01 T01570017  RH  039%=      5-min Rain = 0
KWT1 061953Z 04003KT 16/01 A3031 RMK A01 T01570014  RH  038%=      5-min Rain = 0
KWT1 061954Z 06004KT 16/02 A3031 RMK A01 T01560015  RH  039%=      5-min Rain = 0
KWT1 061955Z 06005KT 16/01 A3031 RMK A01 T01550014  RH  038%=      5-min Rain = 0
KWT1 061956Z 04005KT 16/02 A3031 RMK A01 T01550015  RH  039%=      5-min Rain = 0
KWT1 061957Z 05006KT 16/01 A3031 RMK A01 T01550014  RH  038%=      5-min Rain = 0
KWT1 061958Z 06006KT 16/01 A3031 RMK A01 T01550014  RH  038%=      5-min Rain = 0
KWT1 061959Z 06006KT 16/01 A303 RMK A01 T01550013  RH  038%=      5-min Rain = 0
KWT1 062000Z 06007KT 16/01 A303 RMK A01 T01550014  RH  038%=      5-min Rain = 0
KWT1 062001Z 08005KT 16/01 A303 RMK A01 T01550012  RH  038%=      5-min Rain = 0
KWT1 062002Z 05007KT 15/01 A303 RMK A01 T01530013  RH  039%=      5-min Rain = 0
KWT1 062003Z 05003KT 15/01 A303 RMK A01 T01530012  RH  038%=      5-min Rain = 0
KWT1 062004Z 04006KT 15/01 A3031 RMK A01 T01520012  RH  038%=      5-min Rain = 0
KWT1 062005Z 05005KT 15/01 A303 RMK A01 T01540013  RH  038%=      5-min Rain = 0
KWT1 062006Z 05005KT 16/01 A303 RMK A01 T01560014  RH  038%=      5-min Rain = 0
KWT1 062007Z 03007KT 16/01 A303 RMK A01 T01570014  RH  038%=      5-min Rain = 0
KWT1 062008Z 05005KT 16/01 A303 RMK A01 T01570014  RH  038%=      5-min Rain = 0
KWT1 062009Z 05006KT 16/02 A303 RMK A01 T01570015  RH  038%=      5-min Rain = 0
KWT1 062010Z 05004KT 16/01 A303 RMK A01 T01560013  RH  038%=      5-min Rain = 0
KWT1 062011Z 04004KT 16/01 A303 RMK A01 T01550013  RH  038%=      5-min Rain = 0
KWT1 062012Z 07003KT 15/01 A303 RMK A01 T01540014  RH  039%=      5-min Rain = 0
KWT1 062013Z 05003KT 16/01 A303 RMK A01 T01550014  RH  038%=      5-min Rain = 0
KWT1 062014Z 06005KT 16/01 A303 RMK A01 T01550014  RH  038%=      5-min Rain = 0
KWT1 062015Z 06004KT 16/02 A303 RMK A01 T01570015  RH  038%=      5-min Rain = 0
KWT1 062016Z 05004KT 16/01 A303 RMK A01 T01550012  RH  038%=      5-min Rain = 0
KWT1 062017Z 07002KT 15/01 A303 RMK A01 T01540013  RH  038%=      5-min Rain = 0
KWT1 062018Z 12002KT 15/01 A303 RMK A01 T01540013  RH  038%=      5-min Rain = 0
KWT1 062019Z 15003KT 16/01 A303 RMK A01 T01550013  RH  038%=      5-min Rain = 0
KWT1 062020Z 10002KT 16/02 A303 RMK A01 T01560015  RH  038%=      5-min Rain = 0
KWT1 062021Z 04003KT 16/01 A303 RMK A01 T01570014  RH  038%=      5-min Rain = 0
KWT1 062022Z 03005KT 16/02 A303 RMK A01 T01580015  RH  038%=      5-min Rain = 0
KWT1 062023Z 06004KT 16/01 A303 RMK A01 T01580013  RH  038%=      5-min Rain = 0
KWT1 062024Z 03006KT 16/02 A303 RMK A01 T01590017  RH  038%=      5-min Rain = 0
KWT1 062025Z 01006KT 16/02 A303 RMK A01 T01600015  RH  037%=      5-min Rain = 0
KWT1 062026Z 01004KT 16/01 A303 RMK A01 T01580014  RH  038%=      5-min Rain = 0
KWT1 062027Z 06001KT 16/01 A303 RMK A01 T01570014  RH  038%=      5-min Rain = 0
KWT1 062028Z 06002KT 16/01 A303 RMK A01 T01570014  RH  038%=      5-min Rain = 0
KWT1 062029Z 08005KT 16/02 A303 RMK A01 T01570015  RH  038%=      5-min Rain = 0
KWT1 062030Z 08003KT 16/01 A303 RMK A01 T01550012  RH  038%=      5-min Rain = 0
KWT1 062031Z 10003KT 15/01 A303 RMK A01 T01530012  RH  038%=      5-min Rain = 0
KWT1 062032Z 12002KT 15/01 A303 RMK A01 T01520012  RH  039%=      5-min Rain = 0
KWT1 062033Z 08001KT 15/01 A303 RMK A01 T01520013  RH  039%=      5-min Rain = 0
KWT1 062034Z 00000KT 15/01 A303 RMK A01 T01530013  RH  039%=      5-min Rain = 0
KWT1 062035Z 06001KT 15/01 A303 RMK A01 T01540013  RH  039%=      5-min Rain = 0
KWT1 062036Z 05003KT 16/02 A303 RMK A01 T01550015  RH  039%=      5-min Rain = 0
KWT1 062037Z 34007KT 16/02 A303 RMK A01 T01570015  RH  038%=      5-min Rain = 0
KWT1 062038Z 35006KT 16/01 A303 RMK A01 T01570013  RH  038%=      5-min Rain = 0
KWT1 062039Z 35006KT 16/01 A303 RMK A01 T01560013  RH  038%=      5-min Rain = 0
KWT1 062040Z 34007KT 16/01 A303 RMK A01 T01550013  RH  038%=      5-min Rain = 0
KWT1 062041Z 34005KT 15/01 A303 RMK A01 T01540009  RH  037%=      5-min Rain = 0
KWT1 062042Z 34003KT 15/01 A303 RMK A01 T01520009  RH  038%=      5-min Rain = 0
KWT1 062043Z 34005KT 15/01 A303 RMK A01 T01540013  RH  038%=      5-min Rain = 0
KWT1 062044Z 34004KT 15/01 A303 RMK A01 T01540011  RH  038%=      5-min Rain = 0
KWT1 062045Z 35003KT 15/01 A303 RMK A01 T01540011  RH  038%=      5-min Rain = 0
KWT1 062046Z 32001KT 15/01 A303 RMK A01 T01530010  RH  038%=      5-min Rain = 0
KWT1 062047Z 35001KT 15/01 A303 RMK A01 T01530010  RH  038%=      5-min Rain = 0
KWT1 062048Z 36003KT 15/01 A303 RMK A01 T01540011  RH  038%=      5-min Rain = 0
KWT1 062049Z 00003KT 15/01 A303 RMK A01 T01530011  RH  038%=      5-min Rain = 0
KWT1 062050Z 36004KT 15/01 A303 RMK A01 T01530011  RH  038%=      5-min Rain = 0
KWT1 062051Z 33003KT 15/01 A303 RMK A01 T01520011  RH  038%=      5-min Rain = 0
KWT1 062052Z 00003KT 15/01 A303 RMK A01 T01530012  RH  038%=      5-min Rain = 0
KWT1 062053Z 03002KT 15/01 A303 RMK A01 T01530011  RH  038%=      5-min Rain = 0
KWT1 062054Z 01002KT 15/01 A303 RMK A01 T01530012  RH  038%=      5-min Rain = 0
KWT1 062055Z 09001KT 15/01 A303 RMK A01 T01530011  RH  038%=      5-min Rain = 0
KWT1 062056Z 21001KT 15/01 A303 RMK A01 T01540011  RH  038%=      5-min Rain = 0
KWT1 062057Z 22001KT 15/01 A303 RMK A01 T01540011  RH  038%=      5-min Rain = 0
KWT1 062058Z 29003KT 15/01 A303 RMK A01 T01540012  RH  038%=      5-min Rain = 0
KWT1 062059Z 31003KT 15/01 A303 RMK A01 T01540012  RH  038%=      5-min Rain = 0
KWT1 062100Z 28001KT 15/01 A303 RMK A01 T01530011  RH  038%=      5-min Rain = 0
KWT1 062101Z 27001KT 15/01 A303 RMK A01 T01530011  RH  038%=      5-min Rain = 0
KWT1 062102Z 27002KT 15/01 A303 RMK A01 T01530013  RH  039%=      5-min Rain = 0
KWT1 062103Z 30002KT 15/01 A303 RMK A01 T01540013  RH  038%=      5-min Rain = 0
KWT1 062104Z 34001KT 16/01 A303 RMK A01 T01550012  RH  038%=      5-min Rain = 0
KWT1 062105Z 01001KT 16/01 A303 RMK A01 T01550012  RH  038%=      5-min Rain = 0
KWT1 062106Z 36002KT 16/01 A303 RMK A01 T01560013  RH  038%=      5-min Rain = 0
KWT1 062107Z 01004KT 16/01 A303 RMK A01 T01570013  RH  038%=      5-min Rain = 0
KWT1 062108Z 01003KT 16/02 A303 RMK A01 T01590015  RH  038%=      5-min Rain = 0
KWT1 062109Z 01005KT 16/01 A303 RMK A01 T01590013  RH  037%=      5-min Rain = 0
KWT1 062110Z 04004KT 16/01 A303 RMK A01 T01590013  RH  037%=      5-min Rain = 0
KWT1 062111Z 06004KT 16/02 A303 RMK A01 T01590015  RH  038%=      5-min Rain = 0
KWT1 062112Z 06003KT 16/01 A303 RMK A01 T01590013  RH  037%=      5-min Rain = 0
KWT1 062113Z 06003KT 16/01 A303 RMK A01 T01580012  RH  037%=      5-min Rain = 0
KWT1 062114Z 05003KT 16/01 A303 RMK A01 T01580013  RH  037%=      5-min Rain = 0
KWT1 062115Z 01003KT 16/01 A303 RMK A01 T01580014  RH  038%=      5-min Rain = 0
KWT1 062116Z 00004KT 16/01 A303 RMK A01 T01580013  RH  037%=      5-min Rain = 0
KWT1 062117Z 32004KT 16/01 A303 RMK A01 T01580011  RH  037%=      5-min Rain = 0
KWT1 062118Z 31004KT 16/01 A303 RMK A01 T01570013  RH  038%=      5-min Rain = 0
KWT1 062119Z 31003KT 16/01 A303 RMK A01 T01570012  RH  037%=      5-min Rain = 0
KWT1 062120Z 29004KT 16/01 A303 RMK A01 T01570012  RH  037%=      5-min Rain = 0
KWT1 062121Z 29003KT 16/01 A303 RMK A01 T01560011  RH  037%=      5-min Rain = 0
KWT1 062122Z 35007KT 16/01 A303 RMK A01 T01560011  RH  038%=      5-min Rain = 0
KWT1 062123Z 03005KT 16/01 A303 RMK A01 T01560013  RH  038%=      5-min Rain = 0
KWT1 062124Z 01005KT 16/02 A303 RMK A01 T01570015  RH  038%=      5-min Rain = 0
KWT1 062125Z 36005KT 16/01 A303 RMK A01 T01580013  RH  037%=      5-min Rain = 0
KWT1 062126Z 36004KT 16/01 A3031 RMK A01 T01560012  RH  038%=      5-min Rain = 0
KWT1 062127Z 36003KT 16/01 A3031 RMK A01 T01560011  RH  038%=      5-min Rain = 0
KWT1 062128Z 04004KT 16/01 A303 RMK A01 T01550011  RH  038%=      5-min Rain = 0
KWT1 062129Z 05004KT 15/01 A3031 RMK A01 T01540011  RH  038%=      5-min Rain = 0
KWT1 062130Z 05004KT 15/01 A303 RMK A01 T01540011  RH  038%=      5-min Rain = 0
KWT1 062131Z 02003KT 16/01 A303 RMK A01 T01550013  RH  038%=      5-min Rain = 0
KWT1 062132Z 01002KT 16/01 A303 RMK A01 T01550010  RH  037%=      5-min Rain = 0
KWT1 062133Z 01002KT 16/01 A303 RMK A01 T01550011  RH  038%=      5-min Rain = 0
KWT1 062134Z 03003KT 15/01 A303 RMK A01 T01540011  RH  038%=      5-min Rain = 0
KWT1 062135Z 03003KT 15/01 A3031 RMK A01 T01540013  RH  038%=      5-min Rain = 0
KWT1 062136Z 01004KT 16/01 A3031 RMK A01 T01550012  RH  038%=      5-min Rain = 0
KWT1 062137Z 01004KT 16/01 A3031 RMK A01 T01550012  RH  038%=      5-min Rain = 0
KWT1 062138Z 03003KT 16/01 A3031 RMK A01 T01550013  RH  038%=      5-min Rain = 0
KWT1 062139Z 05003KT 16/01 A3031 RMK A01 T01560014  RH  038%=      5-min Rain = 0
KWT1 062140Z 06003KT 16/01 A3031 RMK A01 T01570013  RH  038%=      5-min Rain = 0
KWT1 062141Z 06004KT 16/01 A3031 RMK A01 T01570014  RH  038%=      5-min Rain = 0
KWT1 062142Z 03004KT 16/01 A3031 RMK A01 T01580014  RH  038%=      5-min Rain = 0
KWT1 062143Z 05004KT 16/01 A3031 RMK A01 T01580012  RH  037%=      5-min Rain = 0
KWT1 062144Z 04003KT 16/01 A3031 RMK A01 T01570011  RH  037%=      5-min Rain = 0
KWT1 062145Z 36003KT 16/01 A3031 RMK A01 T01570011  RH  037%=      5-min Rain = 0
KWT1 062146Z 36003KT 16/01 A3031 RMK A01 T01560010  RH  037%=      5-min Rain = 0
KWT1 062147Z 36004KT 16/01 A303 RMK A01 T01560011  RH  037%=      5-min Rain = 0
KWT1 062148Z 03004KT 16/01 A303 RMK A01 T01560012  RH  038%=      5-min Rain = 0
KWT1 062149Z 06004KT 16/01 A303 RMK A01 T01560011  RH  037%=      5-min Rain = 0
KWT1 062150Z 08002KT 16/01 A303 RMK A01 T01560012  RH  038%=      5-min Rain = 0
KWT1 062151Z 08003KT 16/01 A303 RMK A01 T01570013  RH  038%=      5-min Rain = 0
KWT1 062152Z 09003KT 16/01 A303 RMK A01 T01570012  RH  037%=      5-min Rain = 0
KWT1 062153Z 09003KT 16/01 A303 RMK A01 T01570011  RH  037%=      5-min Rain = 0
KWT1 062154Z 09002KT 16/01 A303 RMK A01 T01580012  RH  037%=      5-min Rain = 0
KWT1 062155Z 08003KT 16/01 A303 RMK A01 T01580012  RH  037%=      5-min Rain = 0
KWT1 062156Z 07003KT 16/01 A303 RMK A01 T01570011  RH  037%=      5-min Rain = 0
KWT1 062157Z 06003KT 16/01 A303 RMK A01 T01560012  RH  038%=      5-min Rain = 0
KWT1 062158Z 05003KT 16/01 A303 RMK A01 T01560012  RH  037%=      5-min Rain = 0
KWT1 062159Z 06005KT 16/01 A303 RMK A01 T01560011  RH  037%=      5-min Rain = 0
KWT1 062200Z 05005KT 16/01 A303 RMK A01 T01550012  RH  038%=      5-min Rain = 0
KWT1 062201Z 03005KT 16/01 A303 RMK A01 T01550011  RH  038%=      5-min Rain = 0
KWT1 062202Z 03006KT 15/01 A303 RMK A01 T01540011  RH  038%=      5-min Rain = 0
KWT1 062203Z 03005KT 15/01 A303 RMK A01 T01530010  RH  038%=      5-min Rain = 0
KWT1 062204Z 03004KT 15/01 A303 RMK A01 T01530011  RH  038%=      5-min Rain = 0
KWT1 062205Z 02005KT 15/01 A303 RMK A01 T01520012  RH  039%=      5-min Rain = 0
KWT1 062206Z 02005KT 15/01 A303 RMK A01 T01530011  RH  038%=      5-min Rain = 0
KWT1 062207Z 02005KT 15/01 A303 RMK A01 T01530011  RH  038%=      5-min Rain = 0
KWT1 062208Z 02005KT 15/01 A303 RMK A01 T01530011  RH  038%=      5-min Rain = 0
KWT1 062209Z 02004KT 15/01 A303 RMK A01 T01530011  RH  038%=      5-min Rain = 0
KWT1 062210Z 01004KT 15/01 A303 RMK A01 T01530011  RH  038%=      5-min Rain = 0
KWT1 062211Z 01003KT 15/01 A303 RMK A01 T01540011  RH  038%=      5-min Rain = 0
KWT1 062212Z 02003KT 15/01 A303 RMK A01 T01530010  RH  038%=      5-min Rain = 0
KWT1 062213Z 06003KT 15/01 A303 RMK A01 T01510010  RH  038%=      5-min Rain = 0
KWT1 062214Z 04003KT 15/01 A303 RMK A01 T01510010  RH  038%=      5-min Rain = 0
KWT1 062215Z 04004KT 15/01 A303 RMK A01 T01500011  RH  039%=      5-min Rain = 0
KWT1 062216Z 06004KT 15/01 A303 RMK A01 T01490011  RH  039%=      5-min Rain = 0
KWT1 062217Z 06004KT 15/01 A303 RMK A01 T01480010  RH  039%=      5-min Rain = 0
KWT1 062218Z 05004KT 15/01 A303 RMK A01 T01470011  RH  040%=      5-min Rain = 0
KWT1 062219Z 04004KT 15/01 A303 RMK A01 T01460011  RH  040%=      5-min Rain = 0
KWT1 062220Z 04004KT 15/01 A303 RMK A01 T01460012  RH  040%=      5-min Rain = 0
KWT1 062221Z 04004KT 15/01 A303 RMK A01 T01450012  RH  040%=      5-min Rain = 0
KWT1 062222Z 03004KT 15/01 A303 RMK A01 T01450011  RH  040%=      5-min Rain = 0
KWT1 062223Z 03004KT 15/01 A303 RMK A01 T01450012  RH  040%=      5-min Rain = 0
KWT1 062224Z 03005KT 15/01 A303 RMK A01 T01450012  RH  040%=      5-min Rain = 0
KWT1 062225Z 03005KT 15/01 A303 RMK A01 T01450012  RH  040%=      5-min Rain = 0
KWT1 062226Z 04004KT 15/01 A303 RMK A01 T01460011  RH  040%=      5-min Rain = 0
KWT1 062227Z 04004KT 15/01 A303 RMK A01 T01480013  RH  040%=      5-min Rain = 0
KWT1 062228Z 02004KT 15/01 A303 RMK A01 T01500011  RH  039%=      5-min Rain = 0
KWT1 062229Z 02005KT 15/01 A303 RMK A01 T01510012  RH  039%=      5-min Rain = 0
KWT1 062230Z 03004KT 15/01 A303 RMK A01 T01510011  RH  039%=      5-min Rain = 0
KWT1 062231Z 03005KT 15/01 A303 RMK A01 T01510012  RH  039%=      5-min Rain = 0
KWT1 062232Z 04003KT 15/01 A303 RMK A01 T01510012  RH  039%=      5-min Rain = 0
KWT1 062233Z 04004KT 15/01 A303 RMK A01 T01510013  RH  039%=      5-min Rain = 0
KWT1 062234Z 04003KT 15/01 A303 RMK A01 T01510011  RH  039%=      5-min Rain = 0
KWT1 062235Z 04003KT 15/01 A303 RMK A01 T01520012  RH  039%=      5-min Rain = 0
KWT1 062236Z 04003KT 15/01 A303 RMK A01 T01520013  RH  039%=      5-min Rain = 0
KWT1 062237Z 05004KT 15/01 A303 RMK A01 T01530014  RH  039%=      5-min Rain = 0
KWT1 062238Z 05005KT 15/01 A303 RMK A01 T01540014  RH  039%=      5-min Rain = 0
KWT1 062239Z 04005KT 15/01 A303 RMK A01 T01540014  RH  039%=      5-min Rain = 0
KWT1 062240Z 04004KT 15/01 A303 RMK A01 T01540014  RH  039%=      5-min Rain = 0
KWT1 062241Z 03004KT 15/01 A3031 RMK A01 T01540013  RH  039%=      5-min Rain = 0
KWT1 062242Z 04003KT 15/01 A3031 RMK A01 T01540014  RH  039%=      5-min Rain = 0
KWT1 062243Z 04003KT 15/02 A3031 RMK A01 T01540015  RH  039%=      5-min Rain = 0
KWT1 062244Z 04003KT 15/02 A3031 RMK A01 T01540016  RH  039%=      5-min Rain = 0
KWT1 062245Z 03003KT 15/02 A3031 RMK A01 T01540015  RH  039%=      5-min Rain = 0
KWT1 062246Z 03004KT 15/01 A3031 RMK A01 T01540013  RH  038%=      5-min Rain = 0
KWT1 062247Z 02004KT 15/01 A3031 RMK A01 T01540014  RH  039%=      5-min Rain = 0
KWT1 062248Z 03004KT 15/01 A3031 RMK A01 T01540013  RH  038%=      5-min Rain = 0
KWT1 062249Z 02005KT 15/01 A3031 RMK A01 T01530013  RH  038%=      5-min Rain = 0
KWT1 062250Z 03005KT 15/01 A3031 RMK A01 T01520012  RH  038%=      5-min Rain = 0
KWT1 062251Z 03004KT 15/01 A3031 RMK A01 T01520012  RH  038%=      5-min Rain = 0
KWT1 062252Z 03004KT 15/01 A3031 RMK A01 T01520011  RH  039%=      5-min Rain = 0
KWT1 062253Z 03003KT 15/01 A3031 RMK A01 T01510011  RH  038%=      5-min Rain = 0
KWT1 062254Z 04003KT 15/01 A3031 RMK A01 T01510012  RH  039%=      5-min Rain = 0
KWT1 062255Z 04002KT 15/01 A3031 RMK A01 T01510012  RH  039%=      5-min Rain = 0
KWT1 062256Z 04004KT 15/01 A3031 RMK A01 T01510013  RH  039%=      5-min Rain = 0
KWT1 062257Z 05005KT 15/01 A3031 RMK A01 T01510013  RH  039%=      5-min Rain = 0
KWT1 062258Z 05004KT 15/01 A3031 RMK A01 T01500012  RH  039%=      5-min Rain = 0
KWT1 062259Z 05004KT 15/01 A3031 RMK A01 T01500013  RH  039%=      5-min Rain = 0
KWT1 062300Z 05005KT 15/01 A3031 RMK A01 T01490014  RH  040%=      5-min Rain = 0
KWT1 062301Z 04004KT 15/01 A3031 RMK A01 T01480014  RH  040%=      5-min Rain = 0
KWT1 062302Z 03003KT 15/01 A3031 RMK A01 T01470014  RH  040%=      5-min Rain = 0
KWT1 062303Z 02003KT 15/01 A3031 RMK A01 T01470014  RH  041%=      5-min Rain = 0
KWT1 062304Z 03003KT 15/01 A3031 RMK A01 T01450013  RH  041%=      5-min Rain = 0
KWT1 062305Z 03003KT 14/01 A3031 RMK A01 T01440012  RH  041%=      5-min Rain = 0
KWT1 062306Z 02003KT 14/01 A3031 RMK A01 T01430011  RH  041%=      5-min Rain = 0
KWT1 062307Z 02004KT 14/01 A3031 RMK A01 T01420010  RH  041%=      5-min Rain = 0
KWT1 062308Z 02004KT 14/01 A3031 RMK A01 T01410010  RH  041%=      5-min Rain = 0
KWT1 062309Z 03004KT 14/01 A3031 RMK A01 T01410010  RH  041%=      5-min Rain = 0
KWT1 062310Z 03003KT 14/01 A3031 RMK A01 T01400010  RH  041%=      5-min Rain = 0
KWT1 062311Z 03004KT 14/01 A3031 RMK A01 T01390010  RH  041%=      5-min Rain = 0
KWT1 062312Z 03003KT 14/01 A3031 RMK A01 T01390011  RH  042%=      5-min Rain = 0
KWT1 062313Z 02003KT 14/01 A3031 RMK A01 T01380011  RH  042%=      5-min Rain = 0
KWT1 062314Z 03003KT 14/01 A3031 RMK A01 T01370011  RH  042%=      5-min Rain = 0
KWT1 062315Z 03003KT 14/01 A3031 RMK A01 T01370011  RH  042%=      5-min Rain = 0
KWT1 062316Z 03003KT 14/01 A3031 RMK A01 T01360011  RH  043%=      5-min Rain = 0
KWT1 062317Z 03004KT 14/01 A3031 RMK A01 T01350011  RH  043%=      5-min Rain = 0
KWT1 062318Z 03004KT 14/01 A3031 RMK A01 T01350012  RH  043%=      5-min Rain = 0
KWT1 062319Z 03004KT 13/01 A3031 RMK A01 T01340012  RH  043%=      5-min Rain = 0
KWT1 062320Z 03004KT 13/01 A3031 RMK A01 T01330012  RH  044%=      5-min Rain = 0
KWT1 062321Z 03004KT 13/01 A3031 RMK A01 T01320012  RH  044%=      5-min Rain = 0
KWT1 062322Z 04004KT 13/01 A3031 RMK A01 T01310013  RH  044%=      5-min Rain = 0
KWT1 062323Z 04004KT 13/01 A3031 RMK A01 T01300013  RH  045%=      5-min Rain = 0
KWT1 062324Z 04004KT 13/01 A3031 RMK A01 T01300013  RH  045%=      5-min Rain = 0
KWT1 062325Z 04004KT 13/01 A3032 RMK A01 T01300013  RH  045%=      5-min Rain = 0
KWT1 062326Z 04004KT 13/01 A3032 RMK A01 T01290013  RH  045%=      5-min Rain = 0
KWT1 062327Z 04004KT 13/01 A3032 RMK A01 T01290014  RH  045%=      5-min Rain = 0
KWT1 062328Z 03004KT 13/01 A3032 RMK A01 T01290014  RH  045%=      5-min Rain = 0
KWT1 062329Z 03003KT 13/01 A3032 RMK A01 T01290014  RH  045%=      5-min Rain = 0
KWT1 062330Z 03004KT 13/01 A3032 RMK A01 T01290014  RH  045%=      5-min Rain = 0
KWT1 062331Z 03004KT 13/01 A3032 RMK A01 T01290013  RH  045%=      5-min Rain = 0
KWT1 062332Z 03003KT 13/01 A3032 RMK A01 T01290014  RH  045%=      5-min Rain = 0
KWT1 062333Z 04003KT 13/01 A3032 RMK A01 T01280013  RH  045%=      5-min Rain = 0
KWT1 062334Z 04004KT 13/01 A3031 RMK A01 T01280013  RH  046%=      5-min Rain = 0
KWT1 062335Z 04004KT 13/01 A3031 RMK A01 T01280014  RH  046%=      5-min Rain = 0
KWT1 062336Z 04004KT 13/01 A3031 RMK A01 T01270014  RH  046%=      5-min Rain = 0
KWT1 062337Z 04004KT 13/01 A3031 RMK A01 T01260013  RH  046%=      5-min Rain = 0
KWT1 062338Z 04004KT 13/01 A3031 RMK A01 T01260014  RH  046%=      5-min Rain = 0
KWT1 062339Z 04005KT 13/01 A3031 RMK A01 T01250014  RH  047%=      5-min Rain = 0
KWT1 062340Z 05005KT 13/01 A3031 RMK A01 T01250014  RH  047%=      5-min Rain = 0
KWT1 062341Z 05005KT 12/01 A3031 RMK A01 T01240014  RH  047%=      5-min Rain = 0
KWT1 062342Z 05005KT 13/01 A3031 RMK A01 T01250014  RH  047%=      5-min Rain = 0
KWT1 062343Z 05004KT 12/01 A3031 RMK A01 T01240014  RH  047%=      5-min Rain = 0
KWT1 062344Z 05004KT 12/01 A3031 RMK A01 T01230014  RH  047%=      5-min Rain = 0
KWT1 062345Z 05004KT 12/01 A3031 RMK A01 T01230014  RH  047%=      5-min Rain = 0
KWT1 062346Z 06004KT 12/01 A3031 RMK A01 T01230014  RH  047%=      5-min Rain = 0
KWT1 062347Z 06004KT 12/01 A3031 RMK A01 T01230014  RH  047%=      5-min Rain = 0
KWT1 062348Z 06004KT 12/01 A3031 RMK A01 T01230014  RH  047%=      5-min Rain = 0
KWT1 062349Z 06004KT 12/02 A3031 RMK A01 T01230015  RH  048%=      5-min Rain = 0
KWT1 062350Z 06004KT 12/01 A3031 RMK A01 T01230014  RH  047%=      5-min Rain = 0
KWT1 062351Z 06004KT 12/01 A3031 RMK A01 T01230014  RH  047%=      5-min Rain = 0
KWT1 062352Z 06004KT 12/01 A3031 RMK A01 T01230014  RH  047%=      5-min Rain = 0
KWT1 062353Z 06005KT 12/01 A3032 RMK A01 T01230014  RH  047%=      5-min Rain = 0
KWT1 062354Z 06004KT 12/01 A3032 RMK A01 T01230013  RH  047%=      5-min Rain = 0
KWT1 062355Z 06004KT 12/01 A3032 RMK A01 T01220013  RH  047%=      5-min Rain = 0
KWT1 062356Z 06004KT 12/01 A3032 RMK A01 T01220013  RH  047%=      5-min Rain = 0
KWT1 062357Z 06004KT 12/01 A3032 RMK A01 T01220012  RH  047%=      5-min Rain = 0
KWT1 062358Z 06004KT 12/01 A3032 RMK A01 T01220012  RH  047%=      5-min Rain = 0
KWT1 062359Z 06004KT 12/01 A3032 RMK A01 T01220012  RH  047%=      5-min Rain = 0
KWT1 070000Z 06004KT 12/01 A3032 RMK A01 T01220012  RH  047%=      5-min Rain = 0
KWT1 070001Z 06004KT 12/01 A3032 RMK A01 T01220012  RH  047%=      5-min Rain = 0
KWT1 070002Z 06004KT 12/01 A3032 RMK A01 T01220012  RH  047%=      5-min Rain = 0
KWT1 070003Z 05004KT 12/01 A3032 RMK A01 T01210012  RH  047%=      5-min Rain = 0
KWT1 070004Z 05004KT 12/01 A3032 RMK A01 T01210012  RH  047%=      5-min Rain = 0
KWT1 070005Z 05004KT 12/01 A3032 RMK A01 T01200012  RH  048%=      5-min Rain = 0
KWT1 070006Z 05004KT 12/01 A3032 RMK A01 T01200013  RH  048%=      5-min Rain = 0
KWT1 070007Z 05004KT 12/01 A3032 RMK A01 T01190012  RH  048%=      5-min Rain = 0
KWT1 070008Z 05004KT 12/01 A3032 RMK A01 T01180013  RH  048%=      5-min Rain = 0
KWT1 070009Z 05005KT 12/01 A3032 RMK A01 T01180013  RH  049%=      5-min Rain = 0
KWT1 070010Z 05004KT 12/01 A3032 RMK A01 T01170013  RH  049%=      5-min Rain = 0
KWT1 070011Z 05005KT 12/01 A3032 RMK A01 T01160014  RH  049%=      5-min Rain = 0
KWT1 070012Z 05005KT 12/01 A3032 RMK A01 T01160014  RH  050%=      5-min Rain = 0
KWT1 070013Z 05005KT 11/02 A3032 RMK A01 T01140015  RH  050%=      5-min Rain = 0
KWT1 070014Z 05004KT 11/02 A3032 RMK A01 T01130015  RH  051%=      5-min Rain = 0
KWT1 070015Z 05004KT 11/02 A3032 RMK A01 T01130015  RH  051%=      5-min Rain = 0
KWT1 070016Z 05004KT 11/02 A3032 RMK A01 T01120015  RH  051%=      5-min Rain = 0
KWT1 070017Z 05004KT 11/02 A3032 RMK A01 T01120015  RH  051%=      5-min Rain = 0
KWT1 070018Z 05004KT 11/02 A3032 RMK A01 T01110015  RH  051%=      5-min Rain = 0
KWT1 070019Z 05004KT 11/02 A3032 RMK A01 T01120015  RH  051%=      5-min Rain = 0
KWT1 070020Z 05004KT 11/02 A3033 RMK A01 T01120015  RH  051%=      5-min Rain = 0
KWT1 070021Z 05004KT 11/02 A3033 RMK A01 T01110015  RH  051%=      5-min Rain = 0
KWT1 070022Z 05004KT 11/02 A3033 RMK A01 T01110015  RH  051%=      5-min Rain = 0
KWT1 070023Z 05004KT 11/02 A3033 RMK A01 T01110015  RH  051%=      5-min Rain = 0
KWT1 070024Z 05004KT 11/02 A3033 RMK A01 T01100015  RH  052%=      5-min Rain = 0
KWT1 070025Z 05004KT 11/02 A3033 RMK A01 T01100015  RH  052%=      5-min Rain = 0
KWT1 070026Z 05004KT 11/02 A3033 RMK A01 T01090015  RH  052%=      5-min Rain = 0
KWT1 070027Z 05004KT 11/02 A3033 RMK A01 T01090015  RH  052%=      5-min Rain = 0
KWT1 070028Z 05005KT 11/02 A3033 RMK A01 T01090015  RH  052%=      5-min Rain = 0
KWT1 070029Z 05004KT 11/02 A3033 RMK A01 T01090015  RH  052%=      5-min Rain = 0
KWT1 070030Z 05004KT 11/02 A3032 RMK A01 T01090015  RH  052%=      5-min Rain = 0
KWT1 070031Z 05004KT 11/02 A3032 RMK A01 T01080015  RH  053%=      5-min Rain = 0
KWT1 070032Z 05004KT 11/02 A3032 RMK A01 T01070015  RH  053%=      5-min Rain = 0
KWT1 070033Z 05004KT 11/02 A3032 RMK A01 T01070015  RH  053%=      5-min Rain = 0
KWT1 070034Z 05004KT 11/02 A3032 RMK A01 T01060015  RH  053%=      5-min Rain = 0
KWT1 070035Z 06004KT 11/02 A3032 RMK A01 T01060016  RH  054%=      5-min Rain = 0
KWT1 070036Z 05003KT 11/02 A3032 RMK A01 T01050016  RH  054%=      5-min Rain = 0
KWT1 070037Z 05003KT 11/02 A3033 RMK A01 T01060016  RH  054%=      5-min Rain = 0
KWT1 070038Z 05003KT 11/02 A3033 RMK A01 T01050016  RH  054%=      5-min Rain = 0
KWT1 070039Z 05003KT 11/02 A3033 RMK A01 T01050016  RH  054%=      5-min Rain = 0
KWT1 070040Z 06003KT 10/02 A3033 RMK A01 T01040017  RH  055%=      5-min Rain = 0
KWT1 070041Z 06004KT 10/02 A3033 RMK A01 T01040017  RH  055%=      5-min Rain = 0
KWT1 070042Z 06004KT 10/02 A3033 RMK A01 T01040016  RH  054%=      5-min Rain = 0
KWT1 070043Z 06004KT 10/02 A3033 RMK A01 T01040015  RH  054%=      5-min Rain = 0
KWT1 070044Z 07004KT 10/02 A3033 RMK A01 T01040015  RH  054%=      5-min Rain = 0
KWT1 070045Z 06004KT 10/02 A3033 RMK A01 T01040015  RH  054%=      5-min Rain = 0
KWT1 070046Z 06004KT 10/01 A3033 RMK A01 T01040014  RH  054%=      5-min Rain = 0
KWT1 070047Z 06004KT 11/02 A3033 RMK A01 T01050015  RH  054%=      5-min Rain = 0
KWT1 070048Z 05004KT 10/02 A3033 RMK A01 T01040015  RH  054%=      5-min Rain = 0
KWT1 070049Z 05004KT 11/02 A3033 RMK A01 T01050015  RH  054%=      5-min Rain = 0
KWT1 070050Z 06004KT 10/02 A3033 RMK A01 T01040015  RH  054%=      5-min Rain = 0
KWT1 070051Z 06004KT 10/02 A3033 RMK A01 T01040015  RH  054%=      5-min Rain = 0
KWT1 070052Z 06004KT 10/02 A3033 RMK A01 T01030015  RH  054%=      5-min Rain = 0
KWT1 070053Z 06004KT 10/02 A3033 RMK A01 T01020015  RH  055%=      5-min Rain = 0
KWT1 070054Z 06005KT 10/02 A3033 RMK A01 T01010015  RH  055%=      5-min Rain = 0
KWT1 070055Z 06005KT 10/02 A3033 RMK A01 T01010015  RH  055%=      5-min Rain = 0
KWT1 070056Z 06005KT 10/02 A3033 RMK A01 T01000015  RH  055%=      5-min Rain = 0
KWT1 070057Z 06005KT 10/02 A3033 RMK A01 T01000015  RH  056%=      5-min Rain = 0
KWT1 070058Z 06004KT 10/02 A3033 RMK A01 T00990015  RH  056%=      5-min Rain = 0
KWT1 070059Z 06004KT 10/02 A3033 RMK A01 T01000015  RH  056%=      5-min Rain = 0
KWT1 070100Z 06004KT 10/02 A3033 RMK A01 T00990015  RH  056%=      5-min Rain = 0
KWT1 070101Z 06004KT 10/02 A3033 RMK A01 T00990015  RH  056%=      5-min Rain = 0
KWT1 070102Z 06004KT 10/02 A3033 RMK A01 T00990015  RH  056%=      5-min Rain = 0
KWT1 070103Z 05004KT 10/02 A3033 RMK A01 T00990015  RH  056%=      5-min Rain = 0
KWT1 070104Z 05004KT 10/02 A3033 RMK A01 T00990015  RH  056%=      5-min Rain = 0
KWT1 070105Z 05004KT 10/02 A3033 RMK A01 T00990015  RH  056%=      5-min Rain = 0
KWT1 070106Z 05004KT 10/02 A3033 RMK A01 T00990015  RH  056%=      5-min Rain = 0
KWT1 070107Z 05004KT 10/02 A3033 RMK A01 T00990016  RH  056%=      5-min Rain = 0
KWT1 070108Z 05004KT 10/02 A3033 RMK A01 T00980016  RH  056%=      5-min Rain = 0
KWT1 070109Z 05004KT 10/02 A3033 RMK A01 T00980016  RH  057%=      5-min Rain = 0
KWT1 070110Z 05004KT 10/02 A3033 RMK A01 T00970016  RH  057%=      5-min Rain = 0
KWT1 070111Z 05004KT 10/02 A3033 RMK A01 T00970016  RH  057%=      5-min Rain = 0
KWT1 070112Z 05004KT 10/02 A3033 RMK A01 T00970016  RH  057%=      5-min Rain = 0
KWT1 070113Z 05004KT 10/02 A3033 RMK A01 T00970017  RH  057%=      5-min Rain = 0
KWT1 070114Z 06004KT 10/02 A3033 RMK A01 T00960017  RH  058%=      5-min Rain = 0
KWT1 070115Z 06004KT 10/02 A3033 RMK A01 T00960017  RH  058%=      5-min Rain = 0
KWT1 070116Z 06004KT 10/02 A3033 RMK A01 T00960017  RH  058%=      5-min Rain = 0
KWT1 070117Z 06005KT 10/02 A3033 RMK A01 T00960017  RH  058%=      5-min Rain = 0
KWT1 070118Z 06005KT 10/02 A3034 RMK A01 T00950017  RH  058%=      5-min Rain = 0
KWT1 070119Z 06005KT 10/02 A3034 RMK A01 T00950017  RH  058%=      5-min Rain = 0
KWT1 070120Z 06005KT 10/02 A3034 RMK A01 T00950017  RH  058%=      5-min Rain = 0
KWT1 070121Z 06006KT 09/02 A3034 RMK A01 T00940016  RH  058%=      5-min Rain = 0
KWT1 070122Z 06005KT 09/02 A3034 RMK A01 T00940017  RH  058%=      5-min Rain = 0
KWT1 070123Z 06005KT 09/02 A3034 RMK A01 T00940017  RH  059%=      5-min Rain = 0
KWT1 070124Z 06005KT 09/02 A3034 RMK A01 T00930017  RH  059%=      5-min Rain = 0
KWT1 070125Z 06005KT 09/02 A3034 RMK A01 T00930016  RH  059%=      5-min Rain = 0
KWT1 070126Z 06005KT 09/02 A3034 RMK A01 T00930016  RH  059%=      5-min Rain = 0
KWT1 070127Z 06005KT 09/02 A3034 RMK A01 T00930016  RH  059%=      5-min Rain = 0
KWT1 070128Z 06005KT 09/02 A3034 RMK A01 T00930016  RH  059%=      5-min Rain = 0
KWT1 070129Z 06005KT 09/02 A3034 RMK A01 T00930017  RH  059%=      5-min Rain = 0
KWT1 070130Z 07005KT 09/02 A3034 RMK A01 T00930016  RH  059%=      5-min Rain = 0
KWT1 070131Z 06005KT 09/02 A3034 RMK A01 T00930016  RH  059%=      5-min Rain = 0
KWT1 070132Z 07005KT 09/02 A3034 RMK A01 T00920016  RH  059%=      5-min Rain = 0
KWT1 070133Z 07004KT 09/02 A3034 RMK A01 T00920016  RH  059%=      5-min Rain = 0
KWT1 070134Z 06004KT 09/02 A3034 RMK A01 T00920016  RH  059%=      5-min Rain = 0
KWT1 070135Z 06004KT 09/02 A3034 RMK A01 T00910016  RH  059%=      5-min Rain = 0
KWT1 070136Z 06004KT 09/02 A3034 RMK A01 T00910016  RH  059%=      5-min Rain = 0
KWT1 070137Z 06004KT 09/02 A3034 RMK A01 T00900016  RH  059%=      5-min Rain = 0
KWT1 070138Z 06004KT 09/02 A3034 RMK A01 T00900015  RH  060%=      5-min Rain = 0
KWT1 070139Z 06003KT 09/02 A3034 RMK A01 T00900016  RH  060%=      5-min Rain = 0
KWT1 070140Z 06004KT 09/02 A3034 RMK A01 T00900016  RH  060%=      5-min Rain = 0
KWT1 070141Z 06003KT 09/02 A3034 RMK A01 T00890016  RH  060%=      5-min Rain = 0
KWT1 070142Z 06003KT 09/02 A3034 RMK A01 T00880016  RH  061%=      5-min Rain = 0
KWT1 070143Z 06003KT 09/02 A3034 RMK A01 T00870017  RH  061%=      5-min Rain = 0
KWT1 070144Z 05003KT 09/02 A3034 RMK A01 T00860017  RH  062%=      5-min Rain = 0
KWT1 070145Z 06003KT 09/02 A3034 RMK A01 T00860018  RH  062%=      5-min Rain = 0
KWT1 070146Z 06004KT 09/02 A3034 RMK A01 T00850018  RH  063%=      5-min Rain = 0
KWT1 070147Z 07004KT 09/02 A3034 RMK A01 T00850017  RH  062%=      5-min Rain = 0
KWT1 070148Z 07004KT 09/02 A3034 RMK A01 T00860017  RH  062%=      5-min Rain = 0
KWT1 070149Z 06003KT 09/02 A3034 RMK A01 T00860017  RH  062%=      5-min Rain = 0
KWT1 070150Z 06004KT 09/02 A3034 RMK A01 T00870017  RH  062%=      5-min Rain = 0
KWT1 070151Z 06003KT 09/02 A3034 RMK A01 T00870017  RH  061%=      5-min Rain = 0
KWT1 070152Z 06003KT 09/02 A3034 RMK A01 T00870017  RH  061%=      5-min Rain = 0
KWT1 070153Z 06003KT 09/02 A3034 RMK A01 T00870016  RH  061%=      5-min Rain = 0
KWT1 070154Z 06003KT 09/02 A3034 RMK A01 T00870016  RH  061%=      5-min Rain = 0
KWT1 070155Z 06003KT 09/02 A3035 RMK A01 T00870016  RH  061%=      5-min Rain = 0
KWT1 070156Z 06003KT 09/02 A3035 RMK A01 T00870016  RH  061%=      5-min Rain = 0
KWT1 070157Z 06004KT 09/02 A3034 RMK A01 T00860016  RH  061%=      5-min Rain = 0
KWT1 070158Z 06004KT 09/02 A3034 RMK A01 T00860016  RH  061%=      5-min Rain = 0
KWT1 070159Z 06005KT 09/02 A3034 RMK A01 T00860017  RH  062%=      5-min Rain = 0
KWT1 070200Z 06005KT 09/02 A3034 RMK A01 T00860017  RH  062%=      5-min Rain = 0
KWT1 070201Z 06005KT 09/02 A3034 RMK A01 T00860017  RH  062%=      5-min Rain = 0
KWT1 070202Z 06005KT 09/02 A3034 RMK A01 T00860018  RH  062%=      5-min Rain = 0
KWT1 070203Z 06005KT 09/02 A3034 RMK A01 T00850018  RH  062%=      5-min Rain = 0
KWT1 070204Z 06005KT 09/02 A3034 RMK A01 T00850018  RH  062%=      5-min Rain = 0
KWT1 070205Z 06004KT 09/02 A3034 RMK A01 T00850018  RH  062%=      5-min Rain = 0
KWT1 070206Z 06005KT 09/02 A3034 RMK A01 T00850018  RH  062%=      5-min Rain = 0
KWT1 070207Z 06005KT 09/02 A3034 RMK A01 T00850017  RH  062%=      5-min Rain = 0
KWT1 070208Z 06005KT 09/02 A3034 RMK A01 T00850017  RH  062%=      5-min Rain = 0
KWT1 070209Z 06005KT 09/02 A3034 RMK A01 T00850017  RH  062%=      5-min Rain = 0
KWT1 070210Z 06005KT 09/02 A3035 RMK A01 T00850017  RH  062%=      5-min Rain = 0
KWT1 070211Z 06005KT 08/02 A3035 RMK A01 T00840017  RH  063%=      5-min Rain = 0
KWT1 070212Z 06005KT 08/02 A3035 RMK A01 T00840017  RH  063%=      5-min Rain = 0
KWT1 070213Z 06005KT 08/02 A3035 RMK A01 T00830017  RH  063%=      5-min Rain = 0
KWT1 070214Z 06004KT 08/02 A3035 RMK A01 T00830017  RH  063%=      5-min Rain = 0
KWT1 070215Z 06005KT 08/02 A3035 RMK A01 T00830017  RH  063%=      5-min Rain = 0
KWT1 070216Z 06005KT 08/02 A3035 RMK A01 T00830017  RH  063%=      5-min Rain = 0
KWT1 070217Z 05005KT 08/02 A3035 RMK A01 T00830017  RH  063%=      5-min Rain = 0
KWT1 070218Z 05005KT 08/02 A3035 RMK A01 T00820017  RH  063%=      5-min Rain = 0
KWT1 070219Z 05005KT 08/02 A3035 RMK A01 T00820017  RH  063%=      5-min Rain = 0
KWT1 070220Z 05004KT 08/02 A3034 RMK A01 T00820017  RH  064%=      5-min Rain = 0
KWT1 070221Z 05005KT 08/02 A3034 RMK A01 T00810017  RH  064%=      5-min Rain = 0
KWT1 070222Z 05005KT 08/02 A3034 RMK A01 T00810017  RH  064%=      5-min Rain = 0
KWT1 070223Z 05004KT 08/02 A3034 RMK A01 T00810018  RH  064%=      5-min Rain = 0
KWT1 070224Z 05004KT 08/02 A3035 RMK A01 T00810017  RH  064%=      5-min Rain = 0
KWT1 070225Z 05004KT 08/02 A3035 RMK A01 T00800017  RH  064%=      5-min Rain = 0
KWT1 070226Z 05004KT 08/02 A3035 RMK A01 T00800017  RH  064%=      5-min Rain = 0
KWT1 070227Z 05005KT 08/02 A3035 RMK A01 T00800017  RH  064%=      5-min Rain = 0
KWT1 070228Z 05005KT 08/02 A3035 RMK A01 T00800017  RH  064%=      5-min Rain = 0
KWT1 070229Z 05005KT 08/02 A3035 RMK A01 T00800017  RH  064%=      5-min Rain = 0
KWT1 070230Z 05006KT 08/02 A3035 RMK A01 T00800017  RH  064%=      5-min Rain = 0
KWT1 070231Z 05006KT 08/02 A3035 RMK A01 T00800017  RH  065%=      5-min Rain = 0
KWT1 070232Z 06006KT 08/02 A3035 RMK A01 T00790017  RH  065%=      5-min Rain = 0
KWT1 070233Z 06006KT 08/02 A3035 RMK A01 T00790018  RH  065%=      5-min Rain = 0
KWT1 070234Z 06005KT 08/02 A3034 RMK A01 T00790017  RH  065%=      5-min Rain = 0
KWT1 070235Z 06006KT 08/02 A3034 RMK A01 T00790018  RH  065%=      5-min Rain = 0
KWT1 070236Z 06006KT 08/02 A3034 RMK A01 T00790017  RH  065%=      5-min Rain = 0
KWT1 070237Z 06005KT 08/02 A3034 RMK A01 T00790017  RH  065%=      5-min Rain = 0
KWT1 070238Z 06005KT 08/02 A3034 RMK A01 T00790017  RH  065%=      5-min Rain = 0
KWT1 070239Z 06005KT 08/02 A3034 RMK A01 T00790017  RH  065%=      5-min Rain = 0
KWT1 070240Z 07005KT 08/02 A3034 RMK A01 T00790016  RH  065%=      5-min Rain = 0
KWT1 070241Z 07005KT 08/02 A3034 RMK A01 T00790016  RH  064%=      5-min Rain = 0
KWT1 070242Z 07005KT 08/02 A3034 RMK A01 T00800016  RH  064%=      5-min Rain = 0
KWT1 070243Z 07005KT 08/02 A3034 RMK A01 T00800016  RH  064%=      5-min Rain = 0
KWT1 070244Z 07005KT 08/02 A3034 RMK A01 T00800016  RH  064%=      5-min Rain = 0
KWT1 070245Z 07005KT 08/02 A3034 RMK A01 T00800016  RH  064%=      5-min Rain = 0
KWT1 070246Z 07005KT 08/02 A3034 RMK A01 T00790016  RH  064%=      5-min Rain = 0
KWT1 070247Z 07005KT 08/02 A3034 RMK A01 T00790016  RH  065%=      5-min Rain = 0
KWT1 070248Z 07005KT 08/02 A3034 RMK A01 T00790016  RH  065%=      5-min Rain = 0
KWT1 070249Z 07005KT 08/02 A3034 RMK A01 T00780016  RH  065%=      5-min Rain = 0
KWT1 070250Z 07005KT 08/02 A3034 RMK A01 T00780016  RH  065%=      5-min Rain = 0
KWT1 070251Z 07005KT 08/02 A3034 RMK A01 T00780016  RH  065%=      5-min Rain = 0
KWT1 070252Z 07004KT 08/02 A3034 RMK A01 T00770016  RH  065%=      5-min Rain = 0
KWT1 070253Z 07005KT 08/02 A3034 RMK A01 T00780017  RH  065%=      5-min Rain = 0
KWT1 070254Z 08004KT 08/02 A3034 RMK A01 T00770016  RH  065%=      5-min Rain = 0
KWT1 070255Z 07004KT 08/02 A3034 RMK A01 T00770016  RH  065%=      5-min Rain = 0
KWT1 070256Z 08005KT 08/02 A3034 RMK A01 T00770016  RH  065%=      5-min Rain = 0
KWT1 070257Z 08005KT 08/02 A3034 RMK A01 T00770016  RH  065%=      5-min Rain = 0
KWT1 070258Z 08005KT 08/02 A3034 RMK A01 T00760016  RH  065%=      5-min Rain = 0
KWT1 070259Z 08005KT 08/02 A3034 RMK A01 T00760016  RH  066%=      5-min Rain = 0
KWT1 070300Z 08006KT 08/02 A3034 RMK A01 T00760017  RH  066%=      5-min Rain = 0
KWT1 070301Z 08006KT 08/02 A3034 RMK A01 T00760017  RH  066%=      5-min Rain = 0
KWT1 070302Z 08005KT 08/02 A3034 RMK A01 T00760017  RH  066%=      5-min Rain = 0
KWT1 070303Z 08005KT 08/02 A3034 RMK A01 T00760017  RH  066%=      5-min Rain = 0
KWT1 070304Z 08006KT 08/02 A3034 RMK A01 T00760018  RH  067%=      5-min Rain = 0
KWT1 070305Z 08006KT 08/02 A3034 RMK A01 T00760018  RH  066%=      5-min Rain = 0
KWT1 070306Z 08006KT 08/02 A3034 RMK A01 T00760018  RH  066%=      5-min Rain = 0
KWT1 070307Z 08006KT 08/02 A3034 RMK A01 T00760018  RH  067%=      5-min Rain = 0
KWT1 070308Z 08006KT 08/02 A3034 RMK A01 T00760018  RH  067%=      5-min Rain = 0
KWT1 070309Z 08006KT 08/02 A3034 RMK A01 T00760019  RH  067%=      5-min Rain = 0
KWT1 070310Z 08007KT 08/02 A3034 RMK A01 T00760019  RH  067%=      5-min Rain = 0
KWT1 070311Z 07006KT 08/02 A3034 RMK A01 T00760019  RH  067%=      5-min Rain = 0
KWT1 070312Z 08006KT 08/02 A3034 RMK A01 T00760019  RH  067%=      5-min Rain = 0
KWT1 070313Z 08006KT 08/02 A3034 RMK A01 T00750019  RH  067%=      5-min Rain = 0
KWT1 070314Z 08006KT 08/02 A3034 RMK A01 T00750019  RH  068%=      5-min Rain = 0
KWT1 070315Z 08006KT 07/02 A3034 RMK A01 T00740019  RH  068%=      5-min Rain = 0
KWT1 070316Z 08006KT 07/02 A3034 RMK A01 T00730019  RH  068%=      5-min Rain = 0
KWT1 070317Z 08006KT 07/02 A3034 RMK A01 T00730019  RH  068%=      5-min Rain = 0
KWT1 070318Z 08006KT 07/02 A3034 RMK A01 T00730019  RH  069%=      5-min Rain = 0
KWT1 070319Z 07005KT 07/02 A3034 RMK A01 T00720019  RH  069%=      5-min Rain = 0
KWT1 070320Z 07006KT 07/02 A3034 RMK A01 T00710019  RH  069%=      5-min Rain = 0
KWT1 070321Z 07006KT 07/02 A3034 RMK A01 T00710019  RH  069%=      5-min Rain = 0
KWT1 070322Z 07005KT 07/02 A3034 RMK A01 T00710019  RH  070%=      5-min Rain = 0
KWT1 070323Z 08006KT 07/02 A3034 RMK A01 T00710019  RH  070%=      5-min Rain = 0
KWT1 070324Z 07006KT 07/02 A3033 RMK A01 T00710019  RH  070%=      5-min Rain = 0
KWT1 070325Z 08006KT 07/02 A3033 RMK A01 T00700019  RH  070%=      5-min Rain = 0
KWT1 070326Z 08006KT 07/02 A3033 RMK A01 T00710020  RH  070%=      5-min Rain = 0
KWT1 070327Z 08006KT 07/02 A3033 RMK A01 T00700019  RH  070%=      5-min Rain = 0
KWT1 070328Z 08006KT 07/02 A3033 RMK A01 T00690019  RH  070%=      5-min Rain = 0
KWT1 070329Z 09006KT 07/02 A3033 RMK A01 T00690019  RH  070%=      5-min Rain = 0
KWT1 070330Z 09006KT 07/02 A3033 RMK A01 T00690019  RH  071%=      5-min Rain = 0
KWT1 070331Z 09006KT 07/02 A3033 RMK A01 T00690019  RH  071%=      5-min Rain = 0
KWT1 070332Z 08005KT 07/02 A3033 RMK A01 T00680019  RH  071%=      5-min Rain = 0
KWT1 070333Z 08006KT 07/02 A3033 RMK A01 T00670019  RH  071%=      5-min Rain = 0
KWT1 070334Z 08006KT 07/02 A3033 RMK A01 T00670019  RH  071%=      5-min Rain = 0
KWT1 070335Z 08006KT 07/02 A3033 RMK A01 T00680019  RH  071%=      5-min Rain = 0
KWT1 070336Z 09006KT 07/02 A3033 RMK A01 T00680019  RH  071%=      5-min Rain = 0
KWT1 070337Z 09005KT 07/02 A3033 RMK A01 T00680019  RH  071%=      5-min Rain = 0
KWT1 070338Z 09006KT 07/02 A3033 RMK A01 T00680019  RH  071%=      5-min Rain = 0
KWT1 070339Z 09006KT 07/02 A3033 RMK A01 T00680019  RH  071%=      5-min Rain = 0
KWT1 070340Z 08007KT 07/02 A3033 RMK A01 T00680019  RH  071%=      5-min Rain = 0
KWT1 070341Z 09007KT 07/02 A3033 RMK A01 T00680020  RH  071%=      5-min Rain = 0
KWT1 070342Z 09007KT 07/02 A3033 RMK A01 T00680020  RH  071%=      5-min Rain = 0
KWT1 070343Z 09006KT 07/02 A3033 RMK A01 T00680020  RH  071%=      5-min Rain = 0
KWT1 070344Z 09007KT 07/02 A3033 RMK A01 T00680020  RH  071%=      5-min Rain = 0
KWT1 070345Z 09006KT 07/02 A3033 RMK A01 T00680020  RH  072%=      5-min Rain = 0
KWT1 070346Z 09006KT 07/02 A3033 RMK A01 T00670020  RH  072%=      5-min Rain = 0
KWT1 070347Z 09006KT 07/02 A3033 RMK A01 T00660020  RH  072%=      5-min Rain = 0
KWT1 070348Z 08006KT 07/02 A3033 RMK A01 T00660020  RH  072%=      5-min Rain = 0
KWT1 070349Z 08005KT 07/02 A3033 RMK A01 T00660020  RH  072%=      5-min Rain = 0
KWT1 070350Z 08006KT 07/02 A3033 RMK A01 T00660020  RH  073%=      5-min Rain = 0
KWT1 070351Z 08005KT 07/02 A3034 RMK A01 T00660020  RH  072%=      5-min Rain = 0
KWT1 070352Z 08006KT 07/02 A3034 RMK A01 T00660020  RH  072%=      5-min Rain = 0
KWT1 070353Z 08005KT 07/02 A3034 RMK A01 T00660020  RH  072%=      5-min Rain = 0
KWT1 070354Z 08006KT 07/02 A3034 RMK A01 T00660020  RH  072%=      5-min Rain = 0
KWT1 070355Z 08005KT 07/02 A3034 RMK A01 T00670020  RH  072%=      5-min Rain = 0
KWT1 070356Z 08006KT 07/02 A3034 RMK A01 T00670020  RH  072%=      5-min Rain = 0
KWT1 070357Z 08005KT 07/02 A3034 RMK A01 T00670020  RH  072%=      5-min Rain = 0
KWT1 070358Z 08005KT 07/02 A3034 RMK A01 T00670020  RH  072%=      5-min Rain = 0
KWT1 070359Z 08005KT 07/02 A3034 RMK A01 T00670020  RH  072%=      5-min Rain = 0
KWT1 070400Z 08005KT 07/02 A3034 RMK A01 T00660019  RH  072%=      5-min Rain = 0
KWT1 070401Z 08006KT 07/02 A3034 RMK A01 T00660019  RH  072%=      5-min Rain = 0
KWT1 070402Z 08006KT 07/02 A3034 RMK A01 T00660019  RH  072%=      5-min Rain = 0
KWT1 070403Z 08006KT 07/02 A3034 RMK A01 T00660019  RH  072%=      5-min Rain = 0
KWT1 070404Z 08006KT 07/02 A3034 RMK A01 T00660020  RH  072%=      5-min Rain = 0
KWT1 070405Z 08006KT 07/02 A3034 RMK A01 T00660019  RH  072%=      5-min Rain = 0
KWT1 070406Z 08005KT 07/02 A3034 RMK A01 T00670019  RH  072%=      5-min Rain = 0
KWT1 070407Z 08005KT 07/02 A3034 RMK A01 T00660019  RH  072%=      5-min Rain = 0
KWT1 070408Z 08006KT 07/02 A3034 RMK A01 T00660019  RH  072%=      5-min Rain = 0
KWT1 070409Z 08006KT 07/02 A3034 RMK A01 T00660019  RH  072%=      5-min Rain = 0
KWT1 070410Z 08005KT 07/02 A3034 RMK A01 T00650019  RH  072%=      5-min Rain = 0
KWT1 070411Z 08005KT 07/02 A3034 RMK A01 T00650019  RH  072%=      5-min Rain = 0
KWT1 070412Z 08006KT 07/02 A3034 RMK A01 T00650019  RH  073%=      5-min Rain = 0
KWT1 070413Z 08006KT 06/02 A3034 RMK A01 T00640019  RH  073%=      5-min Rain = 0
KWT1 070414Z 08006KT 06/02 A3034 RMK A01 T00640019  RH  073%=      5-min Rain = 0
KWT1 070415Z 08006KT 06/02 A3034 RMK A01 T00640019  RH  073%=      5-min Rain = 0
KWT1 070416Z 08006KT 06/02 A3034 RMK A01 T00640019  RH  073%=      5-min Rain = 0
KWT1 070417Z 08006KT 06/02 A3034 RMK A01 T00640019  RH  073%=      5-min Rain = 0
KWT1 070418Z 07006KT 06/02 A3034 RMK A01 T00640019  RH  073%=      5-min Rain = 0
KWT1 070419Z 07005KT 06/02 A3034 RMK A01 T00640019  RH  073%=      5-min Rain = 0
KWT1 070420Z 07005KT 06/02 A3034 RMK A01 T00630019  RH  073%=      5-min Rain = 0
KWT1 070421Z 07005KT 06/02 A3034 RMK A01 T00630019  RH  073%=      5-min Rain = 0
KWT1 070422Z 07005KT 06/02 A3034 RMK A01 T00630019  RH  073%=      5-min Rain = 0
KWT1 070423Z 08005KT 06/02 A3034 RMK A01 T00620018  RH  073%=      5-min Rain = 0
KWT1 070424Z 08005KT 06/02 A3034 RMK A01 T00620018  RH  073%=      5-min Rain = 0
KWT1 070425Z 08005KT 06/02 A3034 RMK A01 T00630018  RH  073%=      5-min Rain = 0
KWT1 070426Z 08005KT 06/02 A3034 RMK A01 T00630019  RH  073%=      5-min Rain = 0
KWT1 070427Z 08005KT 06/02 A3034 RMK A01 T00630019  RH  073%=      5-min Rain = 0
KWT1 070428Z 08005KT 06/02 A3034 RMK A01 T00630019  RH  073%=      5-min Rain = 0
KWT1 070429Z 08005KT 06/02 A3034 RMK A01 T00630019  RH  073%=      5-min Rain = 0
KWT1 070430Z 08005KT 06/02 A3034 RMK A01 T00630019  RH  073%=      5-min Rain = 0
KWT1 070431Z 08005KT 06/02 A3034 RMK A01 T00630019  RH  073%=      5-min Rain = 0
KWT1 070432Z 08006KT 06/02 A3034 RMK A01 T00630019  RH  073%=      5-min Rain = 0
KWT1 070433Z 08006KT 06/02 A3034 RMK A01 T00630019  RH  073%=      5-min Rain = 0
KWT1 070434Z 08005KT 06/02 A3034 RMK A01 T00630019  RH  073%=      5-min Rain = 0
KWT1 070435Z 09005KT 06/02 A3034 RMK A01 T00630019  RH  073%=      5-min Rain = 0
KWT1 070436Z 09005KT 06/02 A3034 RMK A01 T00630019  RH  073%=      5-min Rain = 0
KWT1 070437Z 09006KT 06/02 A3034 RMK A01 T00630019  RH  073%=      5-min Rain = 0
KWT1 070438Z 10005KT 06/02 A3034 RMK A01 T00640019  RH  073%=      5-min Rain = 0
KWT1 070439Z 09005KT 06/02 A3034 RMK A01 T00630019  RH  073%=      5-min Rain = 0
KWT1 070440Z 09005KT 06/02 A3034 RMK A01 T00630019  RH  073%=      5-min Rain = 0
KWT1 070441Z 09005KT 06/02 A3034 RMK A01 T00630019  RH  073%=      5-min Rain = 0
KWT1 070442Z 08006KT 06/02 A3034 RMK A01 T00630018  RH  073%=      5-min Rain = 0
KWT1 070443Z 08005KT 06/02 A3034 RMK A01 T00620018  RH  074%=      5-min Rain = 0
KWT1 070444Z 09006KT 06/02 A3034 RMK A01 T00610018  RH  074%=      5-min Rain = 0
KWT1 070445Z 08005KT 06/02 A3034 RMK A01 T00610018  RH  074%=      5-min Rain = 0
KWT1 070446Z 08006KT 06/02 A3034 RMK A01 T00610018  RH  074%=      5-min Rain = 0
KWT1 070447Z 08005KT 06/02 A3034 RMK A01 T00600018  RH  074%=      5-min Rain = 0
KWT1 070448Z 08005KT 06/02 A3034 RMK A01 T00600019  RH  074%=      5-min Rain = 0
KWT1 070449Z 08005KT 06/02 A3034 RMK A01 T00600018  RH  074%=      5-min Rain = 0
KWT1 070450Z 07005KT 06/02 A3034 RMK A01 T00600018  RH  074%=      5-min Rain = 0
KWT1 070451Z 07005KT 06/02 A3034 RMK A01 T00600018  RH  074%=      5-min Rain = 0
KWT1 070452Z 07005KT 06/02 A3034 RMK A01 T00610018  RH  074%=      5-min Rain = 0
KWT1 070453Z 07005KT 06/02 A3034 RMK A01 T00610018  RH  074%=      5-min Rain = 0
KWT1 070454Z 07005KT 06/02 A3034 RMK A01 T00610018  RH  074%=      5-min Rain = 0
KWT1 070455Z 07004KT 06/02 A3034 RMK A01 T00610018  RH  074%=      5-min Rain = 0
KWT1 070456Z 07004KT 06/02 A3034 RMK A01 T00600018  RH  074%=      5-min Rain = 0
KWT1 070457Z 07004KT 06/02 A3034 RMK A01 T00600018  RH  074%=      5-min Rain = 0
KWT1 070458Z 07004KT 06/02 A3034 RMK A01 T00600018  RH  074%=      5-min Rain = 0
KWT1 070459Z 07004KT 06/02 A3034 RMK A01 T00600018  RH  074%=      5-min Rain = 0
KWT1 070500Z 07005KT 06/02 A3034 RMK A01 T00600018  RH  074%=      5-min Rain = 0
KWT1 070501Z 08004KT 06/02 A3034 RMK A01 T00600017  RH  074%=      5-min Rain = 0
KWT1 070502Z 08004KT 06/02 A3034 RMK A01 T00590017  RH  074%=      5-min Rain = 0
KWT1 070503Z 08004KT 06/02 A3034 RMK A01 T00600018  RH  074%=      5-min Rain = 0
KWT1 070504Z 08004KT 06/02 A3034 RMK A01 T00600018  RH  074%=      5-min Rain = 0
KWT1 070505Z 08005KT 06/02 A3034 RMK A01 T00600017  RH  074%=      5-min Rain = 0
KWT1 070506Z 08005KT 06/02 A3034 RMK A01 T00600017  RH  074%=      5-min Rain = 0
KWT1 070507Z 08005KT 06/02 A3034 RMK A01 T00600017  RH  074%=      5-min Rain = 0
KWT1 070508Z 08004KT 06/02 A3034 RMK A01 T00600017  RH  074%=      5-min Rain = 0
KWT1 070509Z 08004KT 06/02 A3035 RMK A01 T00590017  RH  074%=      5-min Rain = 0
KWT1 070510Z 09004KT 06/02 A3035 RMK A01 T00590017  RH  074%=      5-min Rain = 0
KWT1 070511Z 09004KT 06/02 A3035 RMK A01 T00590017  RH  075%=      5-min Rain = 0
KWT1 070512Z 08004KT 06/02 A3035 RMK A01 T00580017  RH  075%=      5-min Rain = 0
KWT1 070513Z 08004KT 06/02 A3035 RMK A01 T00580017  RH  075%=      5-min Rain = 0
KWT1 070514Z 08004KT 06/02 A3034 RMK A01 T00590017  RH  075%=      5-min Rain = 0
KWT1 070515Z 09004KT 06/02 A3034 RMK A01 T00590017  RH  075%=      5-min Rain = 0
KWT1 070516Z 08004KT 06/02 A3034 RMK A01 T00580017  RH  075%=      5-min Rain = 0
KWT1 070517Z 09004KT 06/02 A3034 RMK A01 T00580017  RH  075%=      5-min Rain = 0
KWT1 070518Z 09004KT 06/02 A3034 RMK A01 T00570017  RH  075%=      5-min Rain = 0
KWT1 070519Z 09004KT 06/02 A3034 RMK A01 T00580017  RH  075%=      5-min Rain = 0
KWT1 070520Z 09004KT 06/02 A3034 RMK A01 T00580017  RH  075%=      5-min Rain = 0
KWT1 070521Z 09004KT 06/02 A3034 RMK A01 T00580017  RH  075%=      5-min Rain = 0
KWT1 070522Z 09004KT 06/02 A3034 RMK A01 T00580017  RH  075%=      5-min Rain = 0
KWT1 070523Z 08004KT 06/02 A3034 RMK A01 T00580017  RH  075%=      5-min Rain = 0
KWT1 070524Z 08004KT 06/02 A3034 RMK A01 T00570017  RH  075%=      5-min Rain = 0
KWT1 070525Z 08004KT 06/02 A3034 RMK A01 T00570017  RH  075%=      5-min Rain = 0
KWT1 070526Z 08004KT 06/02 A3034 RMK A01 T00570016  RH  075%=      5-min Rain = 0
KWT1 070527Z 08004KT 06/02 A3034 RMK A01 T00560016  RH  076%=      5-min Rain = 0
KWT1 070528Z 08004KT 06/02 A3034 RMK A01 T00560016  RH  076%=      5-min Rain = 0
KWT1 070529Z 08004KT 06/02 A3034 RMK A01 T00560016  RH  076%=      5-min Rain = 0
KWT1 070530Z 08004KT 06/02 A3034 RMK A01 T00560017  RH  076%=      5-min Rain = 0
KWT1 070531Z 08004KT 06/02 A3034 RMK A01 T00560016  RH  076%=      5-min Rain = 0
KWT1 070532Z 07004KT 06/02 A3034 RMK A01 T00560017  RH  076%=      5-min Rain = 0
KWT1 070533Z 08004KT 06/02 A3034 RMK A01 T00560016  RH  076%=      5-min Rain = 0
KWT1 070534Z 07004KT 06/02 A3034 RMK A01 T00560016  RH  076%=      5-min Rain = 0
KWT1 070535Z 07004KT 06/02 A3034 RMK A01 T00560016  RH  076%=      5-min Rain = 0
KWT1 070536Z 07004KT 06/02 A3034 RMK A01 T00560016  RH  076%=      5-min Rain = 0
KWT1 070537Z 07004KT 06/02 A3034 RMK A01 T00560017  RH  076%=      5-min Rain = 0
KWT1 070538Z 06003KT 06/02 A3034 RMK A01 T00560017  RH  076%=      5-min Rain = 0
KWT1 070539Z 06003KT 06/02 A3034 RMK A01 T00570017  RH  075%=      5-min Rain = 0
KWT1 070540Z 06003KT 06/02 A3035 RMK A01 T00570016  RH  075%=      5-min Rain = 0
KWT1 070541Z 04003KT 06/02 A3035 RMK A01 T00550015  RH  075%=      5-min Rain = 0
KWT1 070542Z 04003KT 05/02 A3035 RMK A01 T00540015  RH  076%=      5-min Rain = 0
KWT1 070543Z 03003KT 05/02 A3035 RMK A01 T00530016  RH  077%=      5-min Rain = 0
KWT1 070544Z 03002KT 05/02 A3035 RMK A01 T00530017  RH  078%=      5-min Rain = 0
KWT1 070545Z 03003KT 05/02 A3035 RMK A01 T00530017  RH  078%=      5-min Rain = 0
KWT1 070546Z 03003KT 05/02 A3035 RMK A01 T00540018  RH  078%=      5-min Rain = 0
KWT1 070547Z 03003KT 05/02 A3035 RMK A01 T00540018  RH  078%=      5-min Rain = 0
KWT1 070548Z 03003KT 05/02 A3035 RMK A01 T00540018  RH  077%=      5-min Rain = 0
KWT1 070549Z 04003KT 05/02 A3035 RMK A01 T00540017  RH  077%=      5-min Rain = 0
KWT1 070550Z 04003KT 05/02 A3035 RMK A01 T00540017  RH  077%=      5-min Rain = 0
KWT1 070551Z 04003KT 05/02 A3035 RMK A01 T00540017  RH  077%=      5-min Rain = 0
KWT1 070552Z 04003KT 05/02 A3035 RMK A01 T00540017  RH  077%=      5-min Rain = 0
KWT1 070553Z 05004KT 05/02 A3035 RMK A01 T00540017  RH  077%=      5-min Rain = 0
KWT1 070554Z 05004KT 05/02 A3035 RMK A01 T00540017  RH  077%=      5-min Rain = 0
KWT1 070555Z 05004KT 05/02 A3035 RMK A01 T00540016  RH  077%=      5-min Rain = 0
KWT1 070556Z 05003KT 05/02 A3035 RMK A01 T00540016  RH  077%=      5-min Rain = 0
KWT1 070557Z 06004KT 06/02 A3034 RMK A01 T00550017  RH  077%=      5-min Rain = 0
KWT1 070558Z 06003KT 06/02 A3034 RMK A01 T00560017  RH  076%=      5-min Rain = 0
KWT1 070559Z 06004KT 06/02 A3034 RMK A01 T00560017  RH  076%=      5-min Rain = 0

Page generated in 0.0785 seconds.